CAL051 RCTP-YSSY

Flight info

Callsign CAL051
Flight time 8h 40m
Altitude 37000
Route KUDOS1A KUDOS R595 TUNTO DCT 21N131E 14N136E/N0490F390 0725N13946E DCT KEONE R204 LIDIT/N0486F400 DCT WP/N0483F410 DCT GULOP Y173 UBGAN Y161 OVNOM H652 BOREE
Aircraft A359/H-SDE2E3GHIJ3J4J5LM1ORWXY/LB1D1

Departure

Time 2026-05-07 21:07
Airport Taiwan Taoyuan International Airport (RCTP)

Arrival

Time 2026-05-08 05:48
Airport Sydney Kingsford Smith International Airport (YSSY)
Time Latitude Longitude Altitude Speed Heading
2026-05-07 20:00 25.08130 121.23325 115 ft 0 kts 139°
2026-05-07 20:56 25.08133 121.23322 114 ft 2 kts 139°
2026-05-07 20:56 25.08145 121.23311 114 ft 2 kts 139°
2026-05-07 20:56 25.08157 121.23301 114 ft 2 kts 151°
2026-05-07 20:57 25.08170 121.23295 114 ft 2 kts 162°
2026-05-07 20:57 25.08185 121.23291 114 ft 2 kts 172°
2026-05-07 20:57 25.08199 121.23290 114 ft 2 kts 183°
2026-05-07 20:57 25.08214 121.23292 114 ft 2 kts 193°
2026-05-07 20:58 25.08228 121.23296 114 ft 2 kts 203°
2026-05-07 20:58 25.08242 121.23304 114 ft 2 kts 214°
2026-05-07 20:58 25.08253 121.23314 114 ft 2 kts 224°
2026-05-07 20:58 25.08259 121.23321 114 ft 1 kts 230°
2026-05-07 21:01 25.08259 121.23320 114 ft 1 kts 230°
2026-05-07 21:01 25.08253 121.23312 114 ft 2 kts 229°
2026-05-07 21:01 25.08238 121.23295 114 ft 4 kts 229°
2026-05-07 21:02 25.08212 121.23261 114 ft 8 kts 229°
2026-05-07 21:02 25.08163 121.23199 114 ft 13 kts 229°
2026-05-07 21:02 25.08094 121.23111 114 ft 17 kts 229°
2026-05-07 21:02 25.08011 121.23006 114 ft 19 kts 229°
2026-05-07 21:03 25.07920 121.22890 114 ft 21 kts 229°
2026-05-07 21:03 25.07822 121.22765 114 ft 22 kts 229°
2026-05-07 21:03 25.07719 121.22634 115 ft 23 kts 229°
2026-05-07 21:03 25.07612 121.22497 115 ft 24 kts 229°
2026-05-07 21:04 25.07499 121.22354 115 ft 25 kts 229°
2026-05-07 21:04 25.07384 121.22207 115 ft 26 kts 229°
2026-05-07 21:04 25.07264 121.22055 114 ft 26 kts 229°
2026-05-07 21:04 25.07189 121.21955 114 ft 6 kts 248°
2026-05-07 21:05 25.07201 121.21910 114 ft 7 kts 311°
2026-05-07 21:05 25.07239 121.21872 114 ft 8 kts 318°
2026-05-07 21:05 25.07281 121.21831 114 ft 8 kts 319°
2026-05-07 21:05 25.07328 121.21786 114 ft 9 kts 319°
2026-05-07 21:06 25.07382 121.21745 114 ft 9 kts 347°
2026-05-07 21:06 25.07424 121.21770 114 ft 7 kts 44°
2026-05-07 21:06 25.07464 121.21821 114 ft 15 kts 50°
2026-05-07 21:06 25.07649 121.22055 115 ft 77 kts 49°
2026-05-07 21:07 25.08158 121.22703 115 ft 145 kts 48°
2026-05-07 21:07 25.08940 121.23696 189 ft 191 kts 49°
2026-05-07 21:07 25.09792 121.24789 946 ft 191 kts 49°
2026-05-07 21:07 25.10644 121.25874 1641 ft 188 kts 49°
2026-05-07 21:08 25.11515 121.26982 2062 ft 197 kts 49°
2026-05-07 21:08 25.12440 121.28161 2366 ft 211 kts 48°
2026-05-07 21:08 25.13432 121.29432 2648 ft 228 kts 49°
2026-05-07 21:08 25.14501 121.30810 3011 ft 245 kts 50°
2026-05-07 21:09 25.15636 121.32285 3413 ft 261 kts 50°
2026-05-07 21:09 25.16777 121.33887 3923 ft 272 kts 61°
2026-05-07 21:09 25.17236 121.35875 4635 ft 273 kts 91°
2026-05-07 21:09 25.17067 121.37956 5379 ft 275 kts 98°
2026-05-07 21:10 25.16805 121.40063 5996 ft 282 kts 97°
2026-05-07 21:10 25.16569 121.42213 6680 ft 286 kts 96°
2026-05-07 21:10 25.16374 121.44398 7353 ft 290 kts 95°
2026-05-07 21:10 25.16208 121.46613 8013 ft 294 kts 95°
2026-05-07 21:11 25.16059 121.48867 8635 ft 298 kts 94°
2026-05-07 21:11 25.15918 121.51147 9248 ft 302 kts 94°
2026-05-07 21:11 25.15644 121.55831 10351 ft 313 kts 94°
2026-05-07 21:12 25.15503 121.58274 10642 ft 328 kts 94°
2026-05-07 21:12 25.15357 121.60827 10925 ft 342 kts 94°
2026-05-07 21:12 25.15205 121.63496 11199 ft 357 kts 94°
2026-05-07 21:12 25.15046 121.66273 11463 ft 371 kts 94°
2026-05-07 21:13 25.14881 121.69147 11733 ft 383 kts 94°
2026-05-07 21:13 25.14712 121.72120 12156 ft 391 kts 94°
2026-05-07 21:13 25.14540 121.75108 12682 ft 394 kts 94°
2026-05-07 21:13 25.14366 121.78130 13214 ft 397 kts 94°
2026-05-07 21:14 25.14191 121.81169 13706 ft 401 kts 94°
2026-05-07 21:14 25.14013 121.84238 14206 ft 404 kts 94°
2026-05-07 21:14 25.13833 121.87335 14672 ft 408 kts 94°
2026-05-07 21:14 25.13650 121.90460 15129 ft 412 kts 94°
2026-05-07 21:15 25.13464 121.93635 15578 ft 416 kts 94°
2026-05-07 21:15 25.13276 121.96807 16033 ft 418 kts 94°
2026-05-07 21:15 25.13081 122.00008 16449 ft 422 kts 95°
2026-05-07 21:15 25.12816 122.03229 16859 ft 426 kts 96°
2026-05-07 21:16 25.12521 122.06478 17277 ft 429 kts 96°
2026-05-07 21:16 25.12235 122.09752 17688 ft 432 kts 96°
2026-05-07 21:16 25.11954 122.13049 18125 ft 435 kts 96°
2026-05-07 21:16 25.11674 122.16384 18637 ft 434 kts 96°
2026-05-07 21:17 25.11397 122.19685 19128 ft 435 kts 96°
2026-05-07 21:17 25.11118 122.22998 19539 ft 437 kts 96°
2026-05-07 21:17 25.10836 122.26329 19930 ft 440 kts 96°
2026-05-07 21:17 25.10549 122.29681 20336 ft 442 kts 96°
2026-05-07 21:18 25.10233 122.33047 20725 ft 445 kts 97°
2026-05-07 21:18 25.09901 122.36432 21097 ft 447 kts 96°
2026-05-07 21:18 25.09566 122.39863 21475 ft 450 kts 96°
2026-05-07 21:18 25.09234 122.43282 21849 ft 452 kts 96°
2026-05-07 21:19 25.08900 122.46731 22209 ft 455 kts 96°
2026-05-07 21:19 25.08565 122.50189 22566 ft 457 kts 96°
2026-05-07 21:19 25.08229 122.53660 22924 ft 460 kts 96°
2026-05-07 21:19 25.07889 122.57170 23257 ft 462 kts 96°
2026-05-07 21:20 25.07546 122.60686 23605 ft 465 kts 96°
2026-05-07 21:20 25.07198 122.64251 23940 ft 467 kts 96°
2026-05-07 21:20 25.06851 122.67810 24261 ft 470 kts 97°
2026-05-07 21:20 25.06503 122.71386 24591 ft 472 kts 97°
2026-05-07 21:21 25.06151 122.74976 24920 ft 474 kts 97°
2026-05-07 21:21 25.05797 122.78583 25218 ft 476 kts 97°
2026-05-07 21:21 25.05440 122.82207 25512 ft 479 kts 97°
2026-05-07 21:21 25.05080 122.85844 25798 ft 481 kts 97°
2026-05-07 21:22 25.04714 122.89528 26090 ft 483 kts 97°
2026-05-07 21:22 25.04349 122.93200 26378 ft 485 kts 97°
2026-05-07 21:22 25.03980 122.96898 26648 ft 487 kts 97°
2026-05-07 21:22 25.03610 123.00596 26922 ft 489 kts 97°
2026-05-07 21:23 25.03238 123.04317 27185 ft 491 kts 97°
2026-05-07 21:23 25.02864 123.08053 27427 ft 493 kts 97°
2026-05-07 21:23 25.02489 123.11799 27694 ft 495 kts 97°
2026-05-07 21:23 25.02108 123.15589 27947 ft 497 kts 97°
2026-05-07 21:24 25.01727 123.19362 28185 ft 499 kts 97°
2026-05-07 21:24 25.01342 123.23153 28417 ft 501 kts 97°
2026-05-07 21:24 25.00954 123.26957 28634 ft 503 kts 97°
2026-05-07 21:24 25.00562 123.30781 28889 ft 504 kts 97°
2026-05-07 21:25 25.00170 123.34614 29108 ft 507 kts 97°
2026-05-07 21:25 24.99777 123.38453 29324 ft 509 kts 97°
2026-05-07 21:25 24.99375 123.42357 29534 ft 511 kts 97°
2026-05-07 21:25 24.98975 123.46234 29766 ft 512 kts 97°
2026-05-07 21:26 24.98576 123.50113 29967 ft 514 kts 97°
2026-05-07 21:26 24.98171 123.54014 30208 ft 515 kts 97°
2026-05-07 21:26 24.97767 123.57908 30560 ft 513 kts 96°
2026-05-07 21:26 24.97363 123.61792 30877 ft 512 kts 97°
2026-05-07 21:27 24.96958 123.65679 31174 ft 512 kts 97°
2026-05-07 21:27 24.96551 123.69580 31450 ft 512 kts 97°
2026-05-07 21:27 24.96146 123.73461 31732 ft 511 kts 97°
2026-05-07 21:27 24.95742 123.77319 32028 ft 510 kts 97°
2026-05-07 21:28 24.95336 123.81179 32320 ft 509 kts 97°
2026-05-07 21:28 24.94930 123.85027 32609 ft 508 kts 97°
2026-05-07 21:28 24.94525 123.88864 32851 ft 507 kts 97°
2026-05-07 21:28 24.94116 123.92707 33094 ft 507 kts 97°
2026-05-07 21:29 24.93702 123.96577 33369 ft 506 kts 96°
2026-05-07 21:29 24.93293 124.00397 33636 ft 506 kts 96°
2026-05-07 21:29 24.92861 124.04227 33852 ft 506 kts 97°
2026-05-07 21:29 24.92414 124.08046 34085 ft 506 kts 97°
2026-05-07 21:30 24.91962 124.11874 34322 ft 505 kts 97°
2026-05-07 21:30 24.91511 124.15688 34528 ft 505 kts 96°
2026-05-07 21:30 24.91060 124.19500 34722 ft 505 kts 96°
2026-05-07 21:30 24.90606 124.23351 34923 ft 505 kts 96°
2026-05-07 21:31 24.90157 124.27164 35131 ft 505 kts 96°
2026-05-07 21:31 24.89702 124.30984 35281 ft 506 kts 96°
2026-05-07 21:31 24.88762 124.38645 35489 ft 508 kts 96°
2026-05-07 21:32 24.88297 124.42483 35648 ft 508 kts 96°
2026-05-07 21:32 24.87836 124.46315 35785 ft 509 kts 96°
2026-05-07 21:32 24.87371 124.50193 35891 ft 510 kts 96°
2026-05-07 21:32 24.86910 124.54047 35978 ft 511 kts 95°
2026-05-07 21:33 24.86448 124.57906 36110 ft 511 kts 96°
2026-05-07 21:33 24.85984 124.61771 36197 ft 512 kts 95°
2026-05-07 21:33 24.85056 124.69526 36378 ft 514 kts 96°
2026-05-07 21:34 24.84122 124.77322 36542 ft 515 kts 95°
2026-05-07 21:34 24.83654 124.81209 36643 ft 515 kts 96°
2026-05-07 21:34 24.83181 124.85101 36707 ft 516 kts 95°
2026-05-07 21:35 24.82224 124.92894 36884 ft 517 kts 96°
2026-05-07 21:35 24.81257 125.00705 36903 ft 518 kts 95°
2026-05-07 21:36 24.80299 125.08538 36909 ft 517 kts 95°
2026-05-07 21:36 24.79338 125.16341 36908 ft 517 kts 95°
2026-05-07 21:37 24.78112 125.24107 36905 ft 519 kts 101°
2026-05-07 21:37 24.76083 125.31729 36912 ft 520 kts 109°
2026-05-07 21:38 24.73260 125.39023 36907 ft 520 kts 116°
2026-05-07 21:38 24.69981 125.46081 36913 ft 521 kts 116°
2026-05-07 21:39 24.66688 125.53133 36908 ft 520 kts 116°
2026-05-07 21:39 24.63406 125.60203 36910 ft 519 kts 116°
2026-05-07 21:40 24.60136 125.67254 36914 ft 520 kts 116°
2026-05-07 21:40 24.56879 125.74305 36907 ft 519 kts 116°
2026-05-07 21:41 24.53602 125.81368 36911 ft 520 kts 116°
2026-05-07 21:41 24.50325 125.88405 36911 ft 520 kts 116°
2026-05-07 21:42 24.47044 125.95443 36906 ft 520 kts 116°
2026-05-07 21:42 24.43759 126.02475 36915 ft 520 kts 116°
2026-05-07 21:43 24.40461 126.09528 36904 ft 520 kts 116°
2026-05-07 21:43 24.37175 126.16539 36908 ft 518 kts 116°
2026-05-07 21:44 24.33889 126.23548 36911 ft 519 kts 116°
2026-05-07 21:44 24.30588 126.30575 36912 ft 519 kts 116°
2026-05-07 21:45 24.27294 126.37571 36911 ft 519 kts 116°
2026-05-07 21:45 24.24004 126.44560 36911 ft 518 kts 116°
2026-05-07 21:46 24.20715 126.51532 36913 ft 517 kts 116°
2026-05-07 21:46 24.17410 126.58536 36912 ft 517 kts 116°
2026-05-07 21:47 24.14115 126.65510 36913 ft 517 kts 116°
2026-05-07 21:47 24.10845 126.72476 36912 ft 516 kts 116°
2026-05-07 21:48 24.07638 126.79488 36914 ft 516 kts 115°
2026-05-07 21:48 24.04445 126.86477 36911 ft 515 kts 115°
2026-05-07 21:49 24.01251 126.93444 36911 ft 515 kts 115°
2026-05-07 21:49 23.98052 127.00410 36914 ft 514 kts 115°
2026-05-07 21:50 23.94840 127.07387 36908 ft 514 kts 115°
2026-05-07 21:50 23.91642 127.14328 36913 ft 513 kts 115°
2026-05-07 21:51 23.88433 127.21263 36908 ft 513 kts 115°
2026-05-07 21:51 23.85197 127.28192 36913 ft 512 kts 115°
2026-05-07 21:52 23.81980 127.35109 36908 ft 513 kts 115°
2026-05-07 21:52 23.78777 127.42008 36913 ft 512 kts 115°
2026-05-07 21:53 23.75575 127.48903 36912 ft 511 kts 115°
2026-05-07 21:53 23.72361 127.55814 36912 ft 511 kts 115°
2026-05-07 21:54 23.69156 127.62702 36914 ft 511 kts 115°
2026-05-07 21:54 23.65952 127.69586 36913 ft 510 kts 115°
2026-05-07 21:55 23.62750 127.76474 36909 ft 510 kts 116°
2026-05-07 21:55 23.59547 127.83334 36913 ft 510 kts 116°
2026-05-07 21:56 23.56337 127.90193 36911 ft 509 kts 116°
2026-05-07 21:56 23.53126 127.97043 36913 ft 509 kts 116°
2026-05-07 21:57 23.49903 128.03904 36912 ft 509 kts 116°
2026-05-07 21:57 23.46691 128.10733 36907 ft 509 kts 116°
2026-05-07 21:58 23.43475 128.17564 36911 ft 508 kts 116°
2026-05-07 21:58 23.40247 128.24410 36909 ft 508 kts 116°
2026-05-07 21:59 23.37024 128.31234 36911 ft 508 kts 116°
2026-05-07 21:59 23.33810 128.38035 36909 ft 508 kts 116°
2026-05-07 22:00 23.30590 128.44833 36910 ft 507 kts 116°
2026-05-07 22:00 23.27362 128.51639 36911 ft 506 kts 116°
2026-05-07 22:01 23.24149 128.58408 36907 ft 506 kts 116°
2026-05-07 22:01 23.20927 128.65187 36912 ft 506 kts 116°
2026-05-07 22:02 23.17709 128.71974 36908 ft 505 kts 116°
2026-05-07 22:02 23.14500 128.78724 36910 ft 505 kts 116°
2026-05-07 22:03 23.11283 128.85469 36911 ft 505 kts 116°
2026-05-07 22:03 23.08069 128.92200 36906 ft 504 kts 116°
2026-05-07 22:04 23.04820 128.98941 36906 ft 504 kts 118°
2026-05-07 22:04 23.01114 129.05354 36912 ft 504 kts 125°
2026-05-07 22:05 22.96751 129.11253 36915 ft 503 kts 132°
2026-05-07 22:05 22.91779 129.16584 36912 ft 502 kts 138°
2026-05-07 22:06 22.86573 129.21611 36915 ft 502 kts 139°
2026-05-07 22:06 22.81364 129.26623 36913 ft 502 kts 139°
2026-05-07 22:07 22.76176 129.31646 36913 ft 502 kts 138°
2026-05-07 22:07 22.70980 129.36686 36911 ft 500 kts 138°
2026-05-07 22:08 22.65815 129.41695 36912 ft 500 kts 138°
2026-05-07 22:08 22.60648 129.46704 36913 ft 500 kts 139°
2026-05-07 22:09 22.55459 129.51727 36913 ft 499 kts 139°
2026-05-07 22:09 22.50300 129.56717 36913 ft 499 kts 139°
2026-05-07 22:10 22.45149 129.61693 36912 ft 498 kts 139°
2026-05-07 22:10 22.39994 129.66673 36914 ft 498 kts 139°
2026-05-07 22:11 22.34841 129.71675 36912 ft 497 kts 139°
2026-05-07 22:11 22.29701 129.76643 36911 ft 497 kts 139°
2026-05-07 22:12 22.24555 129.81600 36912 ft 497 kts 139°
2026-05-07 22:12 22.19384 129.86573 36910 ft 497 kts 139°
2026-05-07 22:13 22.14237 129.91514 36912 ft 497 kts 139°
2026-05-07 22:13 22.09084 129.96458 36912 ft 497 kts 139°
2026-05-07 22:14 22.03928 130.01398 36911 ft 496 kts 139°
2026-05-07 22:14 21.98754 130.06352 36912 ft 497 kts 139°
2026-05-07 22:15 21.93597 130.11284 36907 ft 497 kts 139°
2026-05-07 22:15 21.88433 130.16213 36911 ft 498 kts 139°
2026-05-07 22:16 21.83241 130.21140 36908 ft 497 kts 139°
2026-05-07 22:16 21.78069 130.26055 36909 ft 497 kts 139°
2026-05-07 22:17 21.72893 130.30979 36907 ft 498 kts 139°
2026-05-07 22:17 21.67725 130.35897 36906 ft 497 kts 139°
2026-05-07 22:18 21.59955 130.43281 36909 ft 497 kts 139°
2026-05-07 22:19 21.54785 130.48188 36909 ft 497 kts 139°
2026-05-07 22:19 21.49614 130.53093 36908 ft 497 kts 139°
2026-05-07 22:20 21.44430 130.58006 36910 ft 497 kts 139°
2026-05-07 22:20 21.39259 130.62900 36911 ft 497 kts 139°
2026-05-07 22:21 21.34092 130.67800 36909 ft 496 kts 140°
2026-05-07 22:21 21.28923 130.72713 36907 ft 496 kts 140°
2026-05-07 22:22 21.23758 130.77600 36911 ft 497 kts 140°
2026-05-07 22:22 21.18587 130.82480 36909 ft 497 kts 140°
2026-05-07 22:23 21.13414 130.87354 36911 ft 496 kts 140°
2026-05-07 22:23 21.08230 130.92239 36911 ft 496 kts 140°
2026-05-07 22:24 21.03066 130.97096 36911 ft 496 kts 140°
2026-05-07 22:24 20.97705 131.01702 36910 ft 494 kts 146°
2026-05-07 22:25 20.92066 131.05930 36912 ft 494 kts 146°
2026-05-07 22:25 20.86430 131.10131 36911 ft 495 kts 147°
2026-05-07 22:26 20.80789 131.14327 36910 ft 495 kts 146°
2026-05-07 22:26 20.75159 131.18530 36910 ft 495 kts 146°
2026-05-07 22:27 20.69518 131.22746 36910 ft 495 kts 147°
2026-05-07 22:27 20.63893 131.26948 36912 ft 495 kts 147°
2026-05-07 22:28 20.58258 131.31154 36910 ft 494 kts 147°
2026-05-07 22:28 20.52611 131.35366 36911 ft 494 kts 147°
2026-05-07 22:29 20.46983 131.39560 36911 ft 494 kts 147°
2026-05-07 22:29 20.41360 131.43746 36910 ft 494 kts 147°
2026-05-07 22:30 20.35735 131.47930 36911 ft 494 kts 147°
2026-05-07 22:30 20.30085 131.52129 36909 ft 494 kts 147°
2026-05-07 22:31 20.24457 131.56307 36910 ft 494 kts 147°
2026-05-07 22:31 20.18829 131.60483 36911 ft 494 kts 147°
2026-05-07 22:32 20.13183 131.64667 36909 ft 493 kts 147°
2026-05-07 22:32 20.07565 131.68852 36910 ft 494 kts 147°
2026-05-07 22:33 20.01955 131.73027 36909 ft 494 kts 147°
2026-05-07 22:33 19.96327 131.77198 36912 ft 494 kts 147°
2026-05-07 22:34 19.90688 131.81365 36908 ft 493 kts 147°
2026-05-07 22:34 19.85048 131.85512 36909 ft 494 kts 148°
2026-05-07 22:35 19.79412 131.89649 36908 ft 494 kts 148°
2026-05-07 22:35 19.73755 131.93808 36907 ft 494 kts 147°
2026-05-07 22:36 19.68114 131.97957 36909 ft 494 kts 147°
2026-05-07 22:36 19.62476 132.02103 36909 ft 494 kts 147°
2026-05-07 22:37 19.56834 132.06246 36911 ft 494 kts 147°
2026-05-07 22:37 19.51170 132.10404 36902 ft 495 kts 147°
2026-05-07 22:38 19.45517 132.14550 36909 ft 495 kts 148°
2026-05-07 22:38 19.39859 132.18695 36907 ft 495 kts 147°
2026-05-07 22:39 19.34176 132.22856 36911 ft 496 kts 147°
2026-05-07 22:39 19.28516 132.26997 36908 ft 496 kts 148°
2026-05-07 22:40 19.22845 132.31140 36909 ft 496 kts 148°
2026-05-07 22:40 19.17171 132.35284 36910 ft 496 kts 148°
2026-05-07 22:41 19.11474 132.39441 36908 ft 496 kts 148°
2026-05-07 22:41 19.05798 132.43578 36908 ft 497 kts 148°
2026-05-07 22:42 19.00117 132.47715 36909 ft 497 kts 148°
2026-05-07 22:42 18.94419 132.51862 36911 ft 497 kts 148°
2026-05-07 22:43 18.88737 132.55992 36912 ft 497 kts 148°
2026-05-07 22:43 18.83043 132.60107 36911 ft 496 kts 148°
2026-05-07 22:44 18.77355 132.64222 36910 ft 496 kts 148°
2026-05-07 22:44 18.71653 132.68374 36910 ft 496 kts 148°
2026-05-07 22:45 18.65991 132.72503 36911 ft 496 kts 148°
2026-05-07 22:45 18.60316 132.76624 36911 ft 496 kts 148°
2026-05-07 22:46 18.54618 132.80751 36912 ft 496 kts 148°
2026-05-07 22:46 18.48946 132.84851 36913 ft 496 kts 148°
2026-05-07 22:47 18.43269 132.88954 36911 ft 496 kts 148°
2026-05-07 22:47 18.37592 132.93050 36913 ft 496 kts 148°
2026-05-07 22:48 18.31896 132.97158 36912 ft 495 kts 148°
2026-05-07 22:48 18.26218 133.01249 36912 ft 495 kts 148°
2026-05-07 22:49 18.20537 133.05339 36913 ft 495 kts 148°
2026-05-07 22:49 18.14846 133.09434 36914 ft 495 kts 148°
2026-05-07 22:50 18.09169 133.13514 36911 ft 495 kts 148°
2026-05-07 22:50 18.03489 133.17594 36912 ft 495 kts 148°
2026-05-07 22:51 17.97814 133.21667 36912 ft 495 kts 148°
2026-05-07 22:51 17.92116 133.25754 36907 ft 495 kts 148°
2026-05-07 22:52 17.86430 133.29819 36909 ft 495 kts 148°
2026-05-07 22:52 17.80744 133.33870 36906 ft 495 kts 148°
2026-05-07 22:53 17.75040 133.37941 36904 ft 495 kts 148°
2026-05-07 22:53 17.69354 133.42003 36899 ft 495 kts 148°
2026-05-07 22:54 17.63667 133.46064 36896 ft 495 kts 148°
2026-05-07 22:54 17.57982 133.50123 36895 ft 495 kts 148°
2026-05-07 22:55 17.52270 133.54195 36891 ft 496 kts 148°
2026-05-07 22:55 17.46575 133.58254 36893 ft 496 kts 148°
2026-05-07 22:56 17.40877 133.62311 36896 ft 496 kts 148°
2026-05-07 22:56 17.35163 133.66381 36889 ft 496 kts 148°
2026-05-07 22:57 17.29482 133.70454 36887 ft 496 kts 148°
2026-05-07 22:57 17.23795 133.74513 36889 ft 496 kts 149°
2026-05-07 22:58 17.18093 133.78567 36887 ft 496 kts 149°
2026-05-07 22:58 17.12380 133.82621 36885 ft 496 kts 149°
2026-05-07 22:59 17.06677 133.86664 36884 ft 496 kts 149°
2026-05-07 22:59 17.00971 133.90706 36884 ft 496 kts 149°
2026-05-07 23:00 16.95244 133.94759 36884 ft 496 kts 149°
2026-05-07 23:00 16.89539 133.98793 36881 ft 496 kts 149°
2026-05-07 23:01 16.83833 134.02808 36880 ft 495 kts 149°
2026-05-07 23:01 16.78129 134.06821 36883 ft 495 kts 149°
2026-05-07 23:02 16.72411 134.10850 36882 ft 495 kts 149°
2026-05-07 23:02 16.66719 134.14863 36881 ft 494 kts 149°
2026-05-07 23:03 16.61030 134.18870 36876 ft 493 kts 149°
2026-05-07 23:03 16.55338 134.22878 36876 ft 493 kts 149°
2026-05-07 23:04 16.49660 134.26873 36874 ft 492 kts 149°
2026-05-07 23:04 16.43996 134.30855 36875 ft 492 kts 149°
2026-05-07 23:05 16.38321 134.34843 36871 ft 492 kts 149°
2026-05-07 23:05 16.32635 134.38835 36871 ft 492 kts 149°
2026-05-07 23:06 16.26972 134.42808 36870 ft 491 kts 149°
2026-05-07 23:06 16.21313 134.46775 36870 ft 491 kts 149°
2026-05-07 23:07 16.15636 134.50754 36869 ft 490 kts 149°
2026-05-07 23:07 16.09979 134.54714 36866 ft 490 kts 149°
2026-05-07 23:08 16.04331 134.58664 36865 ft 490 kts 149°
2026-05-07 23:08 15.98689 134.62610 36864 ft 490 kts 149°
2026-05-07 23:09 15.93015 134.66581 36862 ft 490 kts 149°
2026-05-07 23:09 15.87379 134.70542 36864 ft 490 kts 149°
2026-05-07 23:10 15.81724 134.74485 36864 ft 490 kts 149°
2026-05-07 23:10 15.76051 134.78436 36864 ft 489 kts 149°
2026-05-07 23:11 15.70405 134.82369 36864 ft 489 kts 149°
2026-05-07 23:11 15.64758 134.86299 36864 ft 489 kts 149°
2026-05-07 23:12 15.59106 134.90232 36864 ft 490 kts 149°
2026-05-07 23:12 15.53436 134.94175 36864 ft 489 kts 149°
2026-05-07 23:13 15.47787 134.98101 36864 ft 489 kts 149°
2026-05-07 23:13 15.42136 135.02025 36864 ft 490 kts 149°
2026-05-07 23:14 15.36465 135.05960 36861 ft 489 kts 149°
2026-05-07 23:14 15.30811 135.09882 36864 ft 489 kts 149°
2026-05-07 23:15 15.25161 135.13796 36865 ft 489 kts 149°
2026-05-07 23:15 15.19514 135.17708 36861 ft 489 kts 149°
2026-05-07 23:16 15.13840 135.21636 36862 ft 489 kts 149°
2026-05-07 23:16 15.08187 135.25544 36861 ft 489 kts 149°
2026-05-07 23:17 15.02535 135.29452 36856 ft 489 kts 149°
2026-05-07 23:17 14.96870 135.33366 36855 ft 488 kts 149°
2026-05-07 23:18 14.91229 135.37260 36855 ft 488 kts 149°
2026-05-07 23:18 14.85579 135.41147 36854 ft 488 kts 149°
2026-05-07 23:19 14.79929 135.45026 36852 ft 488 kts 149°
2026-05-07 23:19 14.74265 135.48921 36852 ft 487 kts 149°
2026-05-07 23:20 14.68634 135.52798 36851 ft 487 kts 149°
2026-05-07 23:20 14.63000 135.56676 36849 ft 487 kts 149°
2026-05-07 23:21 14.57355 135.60559 36847 ft 487 kts 149°
2026-05-07 23:21 14.51733 135.64425 36845 ft 486 kts 149°
2026-05-07 23:22 14.46120 135.68303 36844 ft 486 kts 149°
2026-05-07 23:22 14.40519 135.72174 36844 ft 485 kts 149°
2026-05-07 23:23 14.34886 135.76048 36844 ft 485 kts 149°
2026-05-07 23:23 14.29278 135.79897 36843 ft 485 kts 149°
2026-05-07 23:24 14.23677 135.83738 36844 ft 484 kts 149°
2026-05-07 23:24 14.18052 135.87592 36842 ft 484 kts 149°
2026-05-07 23:25 14.12458 135.91426 36841 ft 484 kts 149°
2026-05-07 23:25 14.06857 135.95265 36841 ft 483 kts 149°
2026-05-07 23:26 14.01271 135.99083 36841 ft 483 kts 149°
2026-05-07 23:26 13.95470 136.02615 36843 ft 486 kts 153°
2026-05-07 23:27 13.86582 136.07805 36829 ft 493 kts 153°
2026-05-07 23:27 13.80602 136.11293 36826 ft 495 kts 153°
2026-05-07 23:28 13.74588 136.14813 36826 ft 495 kts 152°
2026-05-07 23:28 13.68610 136.18316 36828 ft 495 kts 152°
2026-05-07 23:29 13.62627 136.21822 36821 ft 495 kts 152°
2026-05-07 23:29 13.56630 136.25334 36825 ft 495 kts 152°
2026-05-07 23:30 13.50659 136.28831 36814 ft 494 kts 152°
2026-05-07 23:30 13.44690 136.32325 36812 ft 494 kts 152°
2026-05-07 23:31 13.38720 136.35815 36811 ft 494 kts 152°
2026-05-07 23:31 13.32732 136.39314 36808 ft 493 kts 152°
2026-05-07 23:32 13.26773 136.42796 36808 ft 494 kts 152°
2026-05-07 23:32 13.20812 136.46276 36806 ft 493 kts 152°
2026-05-07 23:33 13.14833 136.49765 36807 ft 493 kts 152°
2026-05-07 23:33 13.08878 136.53237 36800 ft 492 kts 152°
2026-05-07 23:34 13.02928 136.56706 36800 ft 492 kts 152°
2026-05-07 23:34 12.96976 136.60172 36794 ft 492 kts 152°
2026-05-07 23:35 12.91015 136.63643 36793 ft 492 kts 152°
2026-05-07 23:35 12.85071 136.67102 36796 ft 491 kts 152°
2026-05-07 23:36 12.79134 136.70572 36794 ft 491 kts 152°
2026-05-07 23:36 12.73184 136.74037 36793 ft 491 kts 152°
2026-05-07 23:37 12.67250 136.77489 36797 ft 491 kts 152°
2026-05-07 23:37 12.61318 136.80933 36795 ft 491 kts 152°
2026-05-07 23:38 12.55391 136.84372 36795 ft 490 kts 152°
2026-05-07 23:38 12.49437 136.87826 36798 ft 490 kts 152°
2026-05-07 23:39 12.43500 136.91267 36796 ft 490 kts 152°
2026-05-07 23:39 12.37577 136.94699 36796 ft 490 kts 152°
2026-05-07 23:40 12.31632 136.98141 36796 ft 490 kts 152°
2026-05-07 23:40 12.25705 137.01572 36796 ft 490 kts 152°
2026-05-07 23:41 12.19778 137.05000 36796 ft 490 kts 152°
2026-05-07 23:41 12.13849 137.08427 36797 ft 490 kts 151°
2026-05-07 23:42 12.07897 137.11867 36796 ft 490 kts 151°
2026-05-07 23:42 12.01969 137.15291 36794 ft 490 kts 151°
2026-05-07 23:43 11.96035 137.18716 36795 ft 490 kts 151°
2026-05-07 23:43 11.90079 137.22153 36799 ft 490 kts 151°
2026-05-07 23:44 11.84139 137.25564 36796 ft 490 kts 151°
2026-05-07 23:44 11.78192 137.28978 36796 ft 490 kts 151°
2026-05-07 23:45 11.72256 137.32392 36791 ft 491 kts 151°
2026-05-07 23:45 11.66294 137.35823 36789 ft 491 kts 151°
2026-05-07 23:46 11.60358 137.39239 36788 ft 491 kts 151°
2026-05-07 23:46 11.54414 137.42658 36786 ft 491 kts 151°
2026-05-07 23:47 11.48455 137.46084 36785 ft 491 kts 151°
2026-05-07 23:47 11.42513 137.49499 36787 ft 491 kts 151°
2026-05-07 23:48 11.36566 137.52915 36784 ft 491 kts 151°
2026-05-07 23:48 11.30620 137.56328 36782 ft 491 kts 151°
2026-05-07 23:49 11.24649 137.59755 36783 ft 491 kts 151°
2026-05-07 23:49 11.18697 137.63169 36776 ft 491 kts 151°
2026-05-07 23:50 11.12738 137.66593 36778 ft 492 kts 151°
2026-05-07 23:50 11.06776 137.70042 36775 ft 492 kts 151°
2026-05-07 23:51 11.00828 137.73466 36773 ft 492 kts 151°
2026-05-07 23:51 10.94876 137.76880 36773 ft 492 kts 151°
2026-05-07 23:52 10.88912 137.80294 36769 ft 492 kts 151°
2026-05-07 23:52 10.82911 137.83708 36774 ft 492 kts 151°
2026-05-07 23:53 10.76948 137.87106 36773 ft 492 kts 151°
2026-05-07 23:53 10.70988 137.90507 36772 ft 492 kts 151°
2026-05-07 23:54 10.65005 137.93923 36774 ft 492 kts 151°
2026-05-07 23:54 10.59041 137.97327 36772 ft 492 kts 151°
2026-05-07 23:55 10.53074 138.00733 36773 ft 492 kts 151°
2026-05-07 23:55 10.47116 138.04131 36774 ft 492 kts 151°
2026-05-07 23:56 10.41136 138.07541 36772 ft 492 kts 151°
2026-05-07 23:56 10.35172 138.10940 36773 ft 491 kts 151°
2026-05-07 23:57 10.29216 138.14332 36770 ft 491 kts 151°
2026-05-07 23:57 10.23234 138.17739 36769 ft 491 kts 151°
2026-05-07 23:58 10.17278 138.21129 36768 ft 491 kts 151°
2026-05-07 23:58 10.11316 138.24521 36763 ft 491 kts 151°
2026-05-07 23:59 10.05361 138.27907 36762 ft 491 kts 151°
2026-05-07 23:59 9.99383 138.31305 36759 ft 491 kts 151°
2026-05-08 00:00 9.93428 138.34688 36754 ft 490 kts 151°
2026-05-08 00:00 9.87475 138.38065 36754 ft 490 kts 151°
2026-05-08 00:01 9.81500 138.41438 36749 ft 490 kts 151°
2026-05-08 00:01 9.75555 138.44802 36748 ft 489 kts 151°
2026-05-08 00:02 9.69618 138.48167 36745 ft 489 kts 151°
2026-05-08 00:02 9.63686 138.51530 36744 ft 488 kts 151°
2026-05-08 00:03 9.57736 138.54901 36741 ft 488 kts 151°
2026-05-08 00:03 9.51812 138.58258 36736 ft 488 kts 151°
2026-05-08 00:04 9.45889 138.61611 36736 ft 488 kts 151°
2026-05-08 00:04 9.39957 138.64970 36732 ft 487 kts 151°
2026-05-08 00:05 9.34058 138.68335 36730 ft 487 kts 151°
2026-05-08 00:05 9.28156 138.71698 36732 ft 487 kts 151°
2026-05-08 00:06 9.22248 138.75046 36726 ft 487 kts 151°
2026-05-08 00:06 9.16317 138.78402 36727 ft 487 kts 150°
2026-05-08 00:07 9.10414 138.81739 36729 ft 486 kts 150°
2026-05-08 00:07 9.04505 138.85076 36725 ft 487 kts 150°
2026-05-08 00:08 8.98570 138.88427 36724 ft 487 kts 150°
2026-05-08 00:08 8.92662 138.91762 36724 ft 487 kts 150°
2026-05-08 00:09 8.86740 138.95097 36723 ft 487 kts 150°
2026-05-08 00:09 8.80820 138.98418 36721 ft 487 kts 150°
2026-05-08 00:10 8.74884 139.01756 36721 ft 487 kts 150°
2026-05-08 00:10 8.68974 139.05084 36714 ft 486 kts 150°
2026-05-08 00:11 8.63075 139.08406 36716 ft 486 kts 150°
2026-05-08 00:11 8.57148 139.11743 36711 ft 486 kts 150°
2026-05-08 00:12 8.51253 139.15062 36710 ft 485 kts 150°
2026-05-08 00:12 8.45354 139.18382 36709 ft 486 kts 150°
2026-05-08 00:13 8.39447 139.21706 36710 ft 486 kts 150°
2026-05-08 00:13 8.33519 139.25039 36704 ft 486 kts 150°
2026-05-08 00:14 8.27615 139.28359 36701 ft 486 kts 150°
2026-05-08 00:14 8.21715 139.31674 36695 ft 486 kts 150°
2026-05-08 00:15 8.15784 139.35006 36690 ft 487 kts 150°
2026-05-08 00:15 8.09868 139.38328 36688 ft 486 kts 150°
2026-05-08 00:16 8.03960 139.41646 36687 ft 487 kts 150°
2026-05-08 00:16 7.98044 139.44968 36684 ft 487 kts 150°
2026-05-08 00:17 7.92108 139.48299 36684 ft 487 kts 150°
2026-05-08 00:17 7.86182 139.51615 36685 ft 487 kts 150°
2026-05-08 00:18 7.80253 139.54926 36691 ft 487 kts 150°
2026-05-08 00:18 7.74304 139.58256 36683 ft 488 kts 150°
2026-05-08 00:19 7.68386 139.61574 36684 ft 487 kts 150°
2026-05-08 00:19 7.62460 139.64899 36686 ft 487 kts 150°
2026-05-08 00:20 7.56550 139.68241 36693 ft 487 kts 150°
2026-05-08 00:20 7.50622 139.71588 36692 ft 487 kts 150°
2026-05-08 00:21 7.44701 139.74910 36695 ft 487 kts 150°
2026-05-08 00:21 7.38862 139.78366 36691 ft 487 kts 147°
2026-05-08 00:22 7.33104 139.81997 36694 ft 487 kts 147°
2026-05-08 00:22 7.27375 139.85623 36694 ft 487 kts 147°
2026-05-08 00:23 7.21645 139.89253 36700 ft 486 kts 147°
2026-05-08 00:23 7.15922 139.92878 36699 ft 487 kts 147°
2026-05-08 00:24 7.10170 139.96521 36702 ft 487 kts 147°
2026-05-08 00:24 7.04442 140.00147 36699 ft 487 kts 147°
2026-05-08 00:25 6.98715 140.03771 36706 ft 487 kts 147°
2026-05-08 00:25 6.92965 140.07411 36706 ft 487 kts 147°
2026-05-08 00:26 6.87223 140.11037 36708 ft 487 kts 147°
2026-05-08 00:26 6.81471 140.14652 36700 ft 488 kts 147°
2026-05-08 00:27 6.75722 140.18277 36706 ft 488 kts 146°
2026-05-08 00:27 6.69950 140.21920 36706 ft 489 kts 147°
2026-05-08 00:28 6.64198 140.25553 36708 ft 489 kts 146°
2026-05-08 00:28 6.58436 140.29192 36707 ft 489 kts 146°
2026-05-08 00:29 6.52650 140.32847 36711 ft 490 kts 146°
2026-05-08 00:29 6.46884 140.36486 36714 ft 490 kts 146°
2026-05-08 00:30 6.41109 140.40129 36709 ft 490 kts 146°
2026-05-08 00:30 6.35337 140.43772 36715 ft 490 kts 146°
2026-05-08 00:31 6.29540 140.47429 36720 ft 491 kts 146°
2026-05-08 00:31 6.23759 140.51075 36720 ft 491 kts 146°
2026-05-08 00:32 6.17968 140.54725 36723 ft 491 kts 146°
2026-05-08 00:32 6.12161 140.58385 36723 ft 491 kts 146°
2026-05-08 00:33 6.06372 140.62034 36729 ft 492 kts 146°
2026-05-08 00:33 6.00578 140.65684 36724 ft 492 kts 146°
2026-05-08 00:34 5.94797 140.69355 36727 ft 492 kts 146°
2026-05-08 00:34 5.88978 140.73039 36729 ft 492 kts 146°
2026-05-08 00:35 5.83171 140.76682 36730 ft 493 kts 146°
2026-05-08 00:35 5.77362 140.80327 36731 ft 493 kts 146°
2026-05-08 00:36 5.71533 140.83990 36727 ft 493 kts 146°
2026-05-08 00:36 5.65725 140.87641 36729 ft 493 kts 146°
2026-05-08 00:37 5.59911 140.91297 36730 ft 493 kts 146°
2026-05-08 00:38 5.51164 140.96796 36730 ft 494 kts 147°
2026-05-08 00:38 5.45341 141.00457 36730 ft 494 kts 147°
2026-05-08 00:39 5.39524 141.04111 36726 ft 494 kts 146°
2026-05-08 00:39 5.33696 141.07772 36733 ft 494 kts 147°
2026-05-08 00:40 5.27848 141.11444 36727 ft 495 kts 147°
2026-05-08 00:40 5.22013 141.15108 36730 ft 495 kts 146°
2026-05-08 00:41 5.16182 141.18768 36731 ft 495 kts 147°
2026-05-08 00:41 5.10335 141.22440 36729 ft 495 kts 147°
2026-05-08 00:42 5.04506 141.26097 36728 ft 495 kts 147°
2026-05-08 00:42 4.98668 141.29761 36731 ft 495 kts 147°
2026-05-08 00:43 4.92836 141.33418 36728 ft 496 kts 147°
2026-05-08 00:43 4.86964 141.37094 36731 ft 495 kts 147°
2026-05-08 00:44 4.81116 141.40741 36731 ft 495 kts 147°
2026-05-08 00:44 4.75316 141.44368 36721 ft 492 kts 146°
2026-05-08 00:45 4.69494 141.48016 36732 ft 490 kts 146°
2026-05-08 00:45 4.63733 141.51627 36730 ft 486 kts 147°
2026-05-08 00:46 4.58029 141.55203 36737 ft 483 kts 146°
2026-05-08 00:46 4.52340 141.58768 36740 ft 483 kts 146°
2026-05-08 00:47 4.46619 141.62354 36740 ft 484 kts 146°
2026-05-08 00:47 4.40919 141.65929 36740 ft 484 kts 146°
2026-05-08 00:48 4.35221 141.69529 36742 ft 484 kts 146°
2026-05-08 00:48 4.29493 141.73134 36740 ft 485 kts 146°
2026-05-08 00:49 4.23773 141.76719 36746 ft 485 kts 146°
2026-05-08 00:49 4.18053 141.80306 36749 ft 486 kts 146°
2026-05-08 00:50 4.12324 141.83900 36749 ft 486 kts 147°
2026-05-08 00:50 4.06485 141.87374 36751 ft 487 kts 152°
2026-05-08 00:51 4.00210 141.89955 36749 ft 488 kts 161°
2026-05-08 00:51 3.93580 141.91462 36751 ft 489 kts 172°
2026-05-08 00:52 3.86744 141.91908 36754 ft 492 kts 178°
2026-05-08 00:52 3.79897 141.92027 36752 ft 492 kts 178°
2026-05-08 00:53 3.73051 141.92147 36754 ft 492 kts 178°
2026-05-08 00:53 3.66197 141.92281 36751 ft 492 kts 178°
2026-05-08 00:54 3.59317 141.92422 36762 ft 493 kts 178°
2026-05-08 00:54 3.52462 141.92565 36754 ft 492 kts 178°
2026-05-08 00:55 3.45604 141.92707 36758 ft 493 kts 178°
2026-05-08 00:55 3.38712 141.92851 36760 ft 493 kts 178°
2026-05-08 00:56 3.31846 141.92994 36765 ft 493 kts 178°
2026-05-08 00:56 3.24983 141.93137 36760 ft 493 kts 178°
2026-05-08 00:57 3.18111 141.93280 36767 ft 494 kts 178°
2026-05-08 00:57 3.11207 141.93425 36768 ft 494 kts 178°
2026-05-08 00:58 3.04328 141.93568 36769 ft 494 kts 178°
2026-05-08 00:58 2.97449 141.93712 36770 ft 494 kts 178°
2026-05-08 00:59 2.90544 141.93857 36773 ft 494 kts 177°
2026-05-08 00:59 2.83662 141.93999 36775 ft 494 kts 177°
2026-05-08 01:00 2.76769 141.94143 36770 ft 496 kts 177°
2026-05-08 01:00 2.69864 141.94286 36774 ft 498 kts 177°
2026-05-08 01:01 2.62868 141.94433 36771 ft 503 kts 177°
2026-05-08 01:01 2.55846 141.94579 36772 ft 505 kts 178°
2026-05-08 01:02 2.48809 141.94724 36773 ft 505 kts 177°
2026-05-08 01:02 2.41756 141.94872 36774 ft 504 kts 177°
2026-05-08 01:03 2.34731 141.95018 36773 ft 504 kts 178°
2026-05-08 01:03 2.27711 141.95164 36775 ft 504 kts 178°
2026-05-08 01:04 2.20685 141.95310 36774 ft 504 kts 178°
2026-05-08 01:04 2.13636 141.95457 36773 ft 504 kts 177°
2026-05-08 01:05 2.06622 141.95603 36775 ft 504 kts 177°
2026-05-08 01:05 1.99603 141.95750 36774 ft 504 kts 178°
2026-05-08 01:06 1.92565 141.95896 36772 ft 504 kts 177°
2026-05-08 01:06 1.85545 141.96042 36773 ft 504 kts 178°
2026-05-08 01:07 1.78521 141.96187 36769 ft 504 kts 177°
2026-05-08 01:07 1.71495 141.96333 36773 ft 505 kts 177°
2026-05-08 01:08 1.64432 141.96479 36770 ft 505 kts 177°
2026-05-08 01:08 1.57408 141.96627 36771 ft 505 kts 177°
2026-05-08 01:09 1.50381 141.96772 36769 ft 505 kts 177°
2026-05-08 01:09 1.43323 141.96919 36769 ft 505 kts 177°
2026-05-08 01:10 1.36285 141.97066 36774 ft 504 kts 177°
2026-05-08 01:10 1.29268 141.97213 36773 ft 505 kts 177°
2026-05-08 01:11 1.22248 141.97359 36770 ft 504 kts 177°
2026-05-08 01:11 1.15199 141.97505 36771 ft 503 kts 177°
2026-05-08 01:12 1.08240 141.97650 36776 ft 498 kts 177°
2026-05-08 01:12 1.01272 141.97797 36771 ft 499 kts 177°
2026-05-08 01:13 0.94299 141.97942 36767 ft 499 kts 177°
2026-05-08 01:13 0.87354 141.98088 36774 ft 499 kts 177°
2026-05-08 01:14 0.80384 141.98232 36770 ft 502 kts 177°
2026-05-08 01:14 0.73375 141.98377 36774 ft 505 kts 177°
2026-05-08 01:15 0.66312 141.98524 36774 ft 505 kts 177°
2026-05-08 01:15 0.59284 141.98671 36774 ft 505 kts 177°
2026-05-08 01:16 0.52258 141.98818 36776 ft 505 kts 177°
2026-05-08 01:16 0.45207 141.98966 36777 ft 504 kts 177°
2026-05-08 01:17 0.38195 141.99113 36777 ft 504 kts 177°
2026-05-08 01:17 0.31181 141.99261 36772 ft 504 kts 177°
2026-05-08 01:18 0.24170 141.99410 36776 ft 503 kts 177°
2026-05-08 01:18 0.17138 141.99560 36774 ft 503 kts 177°
2026-05-08 01:19 0.10139 141.99713 36777 ft 502 kts 177°
2026-05-08 01:19 0.03153 141.99868 36771 ft 502 kts 177°
2026-05-08 01:20 -0.03860 142.00041 36772 ft 502 kts 177°
2026-05-08 01:20 -0.10856 142.00281 36770 ft 502 kts 176°
2026-05-08 01:21 -0.17855 142.00526 36774 ft 502 kts 176°
2026-05-08 01:21 -0.24848 142.00774 36777 ft 502 kts 176°
2026-05-08 01:22 -0.31859 142.01024 36776 ft 502 kts 176°
2026-05-08 01:22 -0.38860 142.01272 36975 ft 504 kts 176°
2026-05-08 01:22 -0.42360 142.01397 37185 ft 503 kts 176°
2026-05-08 01:23 -0.45855 142.01520 37394 ft 502 kts 176°
2026-05-08 01:23 -0.49344 142.01645 37568 ft 502 kts 176°
2026-05-08 01:23 -0.52860 142.01770 37727 ft 502 kts 176°
2026-05-08 01:23 -0.56358 142.01896 37873 ft 502 kts 176°
2026-05-08 01:24 -0.59853 142.02021 38022 ft 502 kts 176°
2026-05-08 01:24 -0.63344 142.02145 38163 ft 502 kts 176°
2026-05-08 01:24 -0.66834 142.02269 38299 ft 502 kts 176°
2026-05-08 01:24 -0.70320 142.02393 38446 ft 502 kts 176°
2026-05-08 01:25 -0.73816 142.02517 38588 ft 502 kts 176°
2026-05-08 01:25 -0.77330 142.02642 38758 ft 502 kts 176°
2026-05-08 01:25 -0.80823 142.02767 38900 ft 501 kts 176°
2026-05-08 01:25 -0.84311 142.02891 39037 ft 501 kts 176°
2026-05-08 01:26 -0.87796 142.03015 39160 ft 501 kts 176°
2026-05-08 01:26 -0.91276 142.03139 39286 ft 501 kts 176°
2026-05-08 01:26 -0.94763 142.03263 39412 ft 501 kts 176°
2026-05-08 01:26 -0.98247 142.03387 39540 ft 500 kts 176°
2026-05-08 01:27 -1.01752 142.03512 39649 ft 500 kts 176°
2026-05-08 01:27 -1.05230 142.03636 39758 ft 500 kts 176°
2026-05-08 01:27 -1.08708 142.03760 39840 ft 500 kts 177°
2026-05-08 01:28 -1.15668 142.04007 40004 ft 500 kts 176°
2026-05-08 01:28 -1.22625 142.04255 40170 ft 500 kts 176°
2026-05-08 01:29 -1.29605 142.04502 40289 ft 500 kts 176°
2026-05-08 01:29 -1.36558 142.04749 40423 ft 499 kts 176°
2026-05-08 01:30 -1.43509 142.04996 40526 ft 500 kts 176°
2026-05-08 01:30 -1.50482 142.05245 40628 ft 499 kts 176°
2026-05-08 01:31 -1.57432 142.05492 40736 ft 499 kts 176°
2026-05-08 01:31 -1.64376 142.05739 40781 ft 499 kts 176°
2026-05-08 01:32 -1.71323 142.05986 40795 ft 499 kts 176°
2026-05-08 01:32 -1.78285 142.06235 40785 ft 499 kts 176°
2026-05-08 01:33 -1.85230 142.06482 40793 ft 499 kts 176°
2026-05-08 01:33 -1.92174 142.06729 40789 ft 499 kts 176°
2026-05-08 01:34 -1.99148 142.06977 40789 ft 499 kts 176°
2026-05-08 01:34 -2.06099 142.07225 40793 ft 500 kts 176°
2026-05-08 01:35 -2.13054 142.07472 40786 ft 499 kts 176°
2026-05-08 01:35 -2.20001 142.07718 40789 ft 499 kts 176°
2026-05-08 01:36 -2.26978 142.07966 40791 ft 499 kts 176°
2026-05-08 01:36 -2.33920 142.08213 40789 ft 499 kts 176°
2026-05-08 01:37 -2.40865 142.08460 40794 ft 499 kts 177°
2026-05-08 01:37 -2.47834 142.08709 40783 ft 499 kts 177°
2026-05-08 01:38 -2.54784 142.08956 40792 ft 499 kts 177°
2026-05-08 01:38 -2.61734 142.09204 40788 ft 499 kts 177°
2026-05-08 01:39 -2.68680 142.09451 40789 ft 499 kts 177°
2026-05-08 01:39 -2.75650 142.09699 40791 ft 499 kts 177°
2026-05-08 01:40 -2.82596 142.09947 40786 ft 499 kts 177°
2026-05-08 01:40 -2.89540 142.10195 40793 ft 500 kts 177°
2026-05-08 01:41 -2.96519 142.10444 40787 ft 499 kts 177°
2026-05-08 01:41 -3.03464 142.10691 40793 ft 499 kts 177°
2026-05-08 01:42 -3.10412 142.10939 40806 ft 499 kts 177°
2026-05-08 01:42 -3.17367 142.11186 40814 ft 500 kts 177°
2026-05-08 01:43 -3.24337 142.11433 40823 ft 499 kts 177°
2026-05-08 01:43 -3.31291 142.11681 40843 ft 500 kts 177°
2026-05-08 01:44 -3.38239 142.11929 40847 ft 499 kts 177°
2026-05-08 01:44 -3.45212 142.12178 40859 ft 500 kts 177°
2026-05-08 01:45 -3.52165 142.12426 40866 ft 499 kts 177°
2026-05-08 01:45 -3.59116 142.12674 40854 ft 500 kts 177°
2026-05-08 01:46 -3.66060 142.12922 40857 ft 500 kts 177°
2026-05-08 01:46 -3.73039 142.13172 40843 ft 499 kts 177°
2026-05-08 01:47 -3.79991 142.13420 40842 ft 499 kts 177°
2026-05-08 01:47 -3.86941 142.13668 40829 ft 500 kts 177°
2026-05-08 01:48 -3.97392 142.14042 40826 ft 499 kts 177°
2026-05-08 01:48 -4.04345 142.14290 40827 ft 500 kts 177°
2026-05-08 01:49 -4.11294 142.14539 40807 ft 499 kts 177°
2026-05-08 01:49 -4.18269 142.14786 40835 ft 500 kts 177°
2026-05-08 01:50 -4.25221 142.15034 40842 ft 500 kts 177°
2026-05-08 01:50 -4.32168 142.15282 40854 ft 499 kts 177°
2026-05-08 01:51 -4.39119 142.15531 40866 ft 500 kts 177°
2026-05-08 01:51 -4.46101 142.15780 40892 ft 499 kts 178°
2026-05-08 01:52 -4.53058 142.16030 40903 ft 500 kts 177°
2026-05-08 01:52 -4.60010 142.16281 40921 ft 500 kts 177°
2026-05-08 01:53 -4.66998 142.16532 40926 ft 500 kts 177°
2026-05-08 01:53 -4.73957 142.16780 40964 ft 500 kts 177°
2026-05-08 01:54 -4.80921 142.17028 40998 ft 500 kts 177°
2026-05-08 01:54 -4.87879 142.17279 41056 ft 500 kts 177°
2026-05-08 01:55 -4.94862 142.17530 41094 ft 500 kts 177°
2026-05-08 01:55 -5.01811 142.17779 41157 ft 500 kts 177°
2026-05-08 01:56 -5.08774 142.18029 41194 ft 500 kts 177°
2026-05-08 01:56 -5.15760 142.18279 41212 ft 500 kts 177°
2026-05-08 01:57 -5.22715 142.18528 41235 ft 500 kts 177°
2026-05-08 01:57 -5.29673 142.18778 41252 ft 500 kts 177°
2026-05-08 01:58 -5.36629 142.19029 41246 ft 500 kts 177°
2026-05-08 01:58 -5.43600 142.19280 41249 ft 500 kts 177°
2026-05-08 01:59 -5.50564 142.19532 41250 ft 500 kts 177°
2026-05-08 01:59 -5.57512 142.19784 41191 ft 500 kts 177°
2026-05-08 02:00 -5.64502 142.20039 41101 ft 500 kts 177°
2026-05-08 02:00 -5.71459 142.20294 41011 ft 500 kts 177°
2026-05-08 02:01 -5.78411 142.20552 40972 ft 500 kts 177°
2026-05-08 02:01 -5.85367 142.20812 40955 ft 500 kts 177°
2026-05-08 02:02 -5.92353 142.21055 40945 ft 500 kts 178°
2026-05-08 02:02 -5.99302 142.21283 40932 ft 500 kts 178°
2026-05-08 02:03 -6.06260 142.21524 40919 ft 500 kts 178°
2026-05-08 02:03 -6.13242 142.21770 40899 ft 499 kts 178°
2026-05-08 02:04 -6.20191 142.22017 40902 ft 499 kts 178°
2026-05-08 02:04 -6.27135 142.22265 40906 ft 499 kts 178°
2026-05-08 02:05 -6.34076 142.22514 40895 ft 499 kts 178°
2026-05-08 02:05 -6.41041 142.22765 40900 ft 499 kts 178°
2026-05-08 02:06 -6.47972 142.23013 40897 ft 498 kts 178°
2026-05-08 02:06 -6.54901 142.23263 40901 ft 498 kts 178°
2026-05-08 02:07 -6.61850 142.23512 40892 ft 498 kts 178°
2026-05-08 02:07 -6.68780 142.23761 40891 ft 497 kts 178°
2026-05-08 02:08 -6.75698 142.24010 40885 ft 497 kts 178°
2026-05-08 02:08 -6.82611 142.24259 40873 ft 497 kts 178°
2026-05-08 02:09 -6.89543 142.24508 40889 ft 496 kts 178°
2026-05-08 02:09 -6.96449 142.24757 40876 ft 496 kts 178°
2026-05-08 02:10 -7.03351 142.25006 40877 ft 496 kts 178°
2026-05-08 02:10 -7.10275 142.25255 40872 ft 496 kts 178°
2026-05-08 02:11 -7.17185 142.25503 40879 ft 496 kts 179°
2026-05-08 02:11 -7.24093 142.25752 40876 ft 497 kts 179°
2026-05-08 02:12 -7.31012 142.26001 40878 ft 497 kts 179°
2026-05-08 02:12 -7.37953 142.26251 40874 ft 497 kts 179°
2026-05-08 02:13 -7.44861 142.26502 40875 ft 497 kts 179°
2026-05-08 02:13 -7.51775 142.26750 40864 ft 497 kts 179°
2026-05-08 02:14 -7.58722 142.27001 40869 ft 497 kts 179°
2026-05-08 02:14 -7.65644 142.27251 40864 ft 498 kts 179°
2026-05-08 02:15 -7.72570 142.27502 40863 ft 497 kts 179°
2026-05-08 02:15 -7.79486 142.27752 40858 ft 497 kts 179°
2026-05-08 02:16 -7.86429 142.28002 40860 ft 497 kts 179°
2026-05-08 02:16 -7.93341 142.28252 40858 ft 497 kts 179°
2026-05-08 02:17 -8.00262 142.28503 40860 ft 497 kts 180°
2026-05-08 02:17 -8.07207 142.28754 40859 ft 497 kts 180°
2026-05-08 02:18 -8.14134 142.29005 40860 ft 497 kts 180°
2026-05-08 02:18 -8.21045 142.29254 40858 ft 497 kts 180°
2026-05-08 02:19 -8.27965 142.29505 40860 ft 497 kts 180°
2026-05-08 02:19 -8.34906 142.29757 40862 ft 497 kts 180°
2026-05-08 02:20 -8.41820 142.30008 40861 ft 497 kts 180°
2026-05-08 02:20 -8.48726 142.30259 40861 ft 496 kts 180°
2026-05-08 02:21 -8.55650 142.30511 40865 ft 497 kts 180°
2026-05-08 02:21 -8.62558 142.30762 40860 ft 496 kts 180°
2026-05-08 02:22 -8.69455 142.31014 40864 ft 496 kts 180°
2026-05-08 02:22 -8.76351 142.31265 40865 ft 496 kts 180°
2026-05-08 02:23 -8.83274 142.31519 40861 ft 496 kts 180°
2026-05-08 02:23 -8.90159 142.31770 40863 ft 495 kts 180°
2026-05-08 02:24 -8.97053 142.32024 40860 ft 495 kts 180°
2026-05-08 02:24 -9.03960 142.32280 40860 ft 495 kts 180°
2026-05-08 02:25 -9.10841 142.32539 40859 ft 494 kts 180°
2026-05-08 02:25 -9.17718 142.32800 40858 ft 494 kts 180°
2026-05-08 02:26 -9.24595 142.33060 40856 ft 494 kts 181°
2026-05-08 02:26 -9.31483 142.32945 40865 ft 492 kts 187°
2026-05-08 02:27 -9.38256 142.32189 40859 ft 489 kts 190°
2026-05-08 02:27 -9.45010 142.31309 40859 ft 490 kts 190°
2026-05-08 02:28 -9.51786 142.30430 40857 ft 489 kts 190°
2026-05-08 02:28 -9.58538 142.29561 40865 ft 489 kts 190°
2026-05-08 02:29 -9.65281 142.28696 40861 ft 488 kts 190°
2026-05-08 02:29 -9.72025 142.27832 40858 ft 488 kts 190°
2026-05-08 02:30 -9.78782 142.26964 40868 ft 488 kts 190°
2026-05-08 02:30 -9.85509 142.26102 40856 ft 487 kts 190°
2026-05-08 02:31 -9.92235 142.25238 40861 ft 487 kts 190°
2026-05-08 02:31 -9.98975 142.24374 40862 ft 486 kts 190°
2026-05-08 02:32 -10.05686 142.23511 40859 ft 486 kts 190°
2026-05-08 02:32 -10.12403 142.22649 40851 ft 486 kts 190°
2026-05-08 02:33 -10.19126 142.21790 40860 ft 486 kts 190°
2026-05-08 02:33 -10.25857 142.20929 40857 ft 486 kts 191°
2026-05-08 02:34 -10.32564 142.20067 40860 ft 486 kts 191°
2026-05-08 02:34 -10.39268 142.19204 40860 ft 486 kts 191°
2026-05-08 02:35 -10.45998 142.18338 40858 ft 485 kts 190°
2026-05-08 02:35 -10.52697 142.17475 40862 ft 485 kts 191°
2026-05-08 02:36 -10.59396 142.16612 40861 ft 485 kts 191°
2026-05-08 02:36 -10.66098 142.15748 40853 ft 485 kts 191°
2026-05-08 02:37 -10.72817 142.14881 40862 ft 485 kts 191°
2026-05-08 02:37 -10.79506 142.14018 40857 ft 485 kts 191°
2026-05-08 02:38 -10.86199 142.13154 40860 ft 485 kts 191°
2026-05-08 02:38 -10.92910 142.12287 40857 ft 485 kts 191°
2026-05-08 02:39 -10.99596 142.11423 40862 ft 484 kts 191°
2026-05-08 02:39 -11.06287 142.10558 40866 ft 484 kts 191°
2026-05-08 02:40 -11.12976 142.09694 40865 ft 485 kts 191°
2026-05-08 02:40 -11.19690 142.08832 40869 ft 484 kts 191°
2026-05-08 02:41 -11.26382 142.07970 40874 ft 485 kts 191°
2026-05-08 02:41 -11.33072 142.07103 40871 ft 485 kts 191°
2026-05-08 02:42 -11.39791 142.06233 40866 ft 485 kts 191°
2026-05-08 02:42 -11.46481 142.05366 40869 ft 485 kts 191°
2026-05-08 02:43 -11.53174 142.04498 40873 ft 485 kts 191°
2026-05-08 02:43 -11.59868 142.03630 40871 ft 485 kts 191°
2026-05-08 02:44 -11.66599 142.02757 40875 ft 485 kts 191°
2026-05-08 02:44 -11.73304 142.01885 40882 ft 486 kts 191°
2026-05-08 02:45 -11.80016 142.01013 40880 ft 486 kts 191°
2026-05-08 02:45 -11.86757 142.00137 40878 ft 486 kts 191°
2026-05-08 02:46 -11.93464 141.99266 40881 ft 486 kts 191°
2026-05-08 02:46 -12.00187 141.98391 40885 ft 487 kts 191°
2026-05-08 02:47 -12.06902 141.97518 40881 ft 487 kts 191°
2026-05-08 02:47 -12.13657 141.96642 40881 ft 487 kts 191°
2026-05-08 02:48 -12.20377 141.95773 40884 ft 486 kts 191°
2026-05-08 02:48 -12.27093 141.94901 40881 ft 486 kts 192°
2026-05-08 02:49 -12.33828 141.94025 40884 ft 486 kts 192°
2026-05-08 02:49 -12.40536 141.93153 40877 ft 486 kts 192°
2026-05-08 02:50 -12.47241 141.92281 40886 ft 486 kts 192°
2026-05-08 02:50 -12.53950 141.91412 40879 ft 486 kts 192°
2026-05-08 02:51 -12.60679 141.90538 40883 ft 486 kts 192°
2026-05-08 02:51 -12.67419 141.89887 40878 ft 489 kts 187°
2026-05-08 02:52 -12.74239 141.89825 40884 ft 490 kts 184°
2026-05-08 02:52 -12.81092 141.89881 40880 ft 491 kts 184°
2026-05-08 02:53 -12.87915 141.89938 40886 ft 490 kts 184°
2026-05-08 02:53 -12.94739 141.89992 40890 ft 491 kts 185°
2026-05-08 02:54 -13.01561 141.90044 40884 ft 490 kts 185°
2026-05-08 02:54 -13.08409 141.90096 40889 ft 491 kts 185°
2026-05-08 02:55 -13.18649 141.90175 40884 ft 491 kts 185°
2026-05-08 02:56 -13.25472 141.90228 40890 ft 490 kts 185°
2026-05-08 02:56 -13.32328 141.90280 40891 ft 491 kts 185°
2026-05-08 02:57 -13.39160 141.90331 40889 ft 491 kts 185°
2026-05-08 02:57 -13.46004 141.90382 40897 ft 492 kts 185°
2026-05-08 02:58 -13.52861 141.90435 40891 ft 491 kts 185°
2026-05-08 02:58 -13.59698 141.90484 40894 ft 492 kts 185°
2026-05-08 02:59 -13.66552 141.90536 40892 ft 493 kts 185°
2026-05-08 02:59 -13.73404 141.90587 40891 ft 492 kts 185°
2026-05-08 03:00 -13.80285 141.90640 40889 ft 492 kts 186°
2026-05-08 03:00 -13.87139 141.90690 40903 ft 493 kts 186°
2026-05-08 03:01 -13.94000 141.90742 40899 ft 493 kts 185°
2026-05-08 03:01 -14.00898 141.90794 40903 ft 495 kts 186°
2026-05-08 03:02 -14.07777 141.90848 40904 ft 494 kts 186°
2026-05-08 03:02 -14.14651 141.90900 40902 ft 494 kts 186°
2026-05-08 03:03 -14.21530 141.90956 40902 ft 494 kts 186°
2026-05-08 03:03 -14.28434 141.91009 40907 ft 494 kts 186°
2026-05-08 03:04 -14.35316 141.91061 40905 ft 495 kts 186°
2026-05-08 03:04 -14.42195 141.91113 40906 ft 495 kts 186°
2026-05-08 03:05 -14.49114 141.91166 40904 ft 495 kts 186°
2026-05-08 03:05 -14.56001 141.91219 40902 ft 495 kts 186°
2026-05-08 03:06 -14.62897 141.91271 40904 ft 496 kts 186°
2026-05-08 03:06 -14.69790 141.91324 40906 ft 496 kts 186°
2026-05-08 03:07 -14.76722 141.91378 40904 ft 496 kts 186°
2026-05-08 03:07 -14.83625 141.91429 40907 ft 496 kts 186°
2026-05-08 03:08 -14.90524 141.91482 40902 ft 496 kts 186°
2026-05-08 03:08 -14.97462 141.91537 40907 ft 497 kts 186°
2026-05-08 03:09 -15.04381 141.91589 40899 ft 497 kts 186°
2026-05-08 03:09 -15.11305 141.91643 40904 ft 498 kts 186°
2026-05-08 03:10 -15.18233 141.91701 40900 ft 497 kts 186°
2026-05-08 03:10 -15.25174 141.91757 40906 ft 498 kts 186°
2026-05-08 03:11 -15.32103 141.91813 40906 ft 498 kts 187°
2026-05-08 03:11 -15.39035 141.91867 40911 ft 498 kts 187°
2026-05-08 03:12 -15.45993 141.91924 40912 ft 499 kts 187°
2026-05-08 03:12 -15.52928 141.91981 40912 ft 499 kts 187°
2026-05-08 03:13 -15.59864 141.92043 40910 ft 499 kts 187°
2026-05-08 03:13 -15.66807 141.92105 40908 ft 500 kts 187°
2026-05-08 03:14 -15.73802 141.92261 40919 ft 504 kts 183°
2026-05-08 03:14 -15.80807 141.93253 40917 ft 512 kts 174°
2026-05-08 03:15 -15.87643 141.95292 40935 ft 510 kts 166°
2026-05-08 03:15 -15.94176 141.98293 40929 ft 514 kts 159°
2026-05-08 03:16 -16.00569 142.01608 40927 ft 513 kts 159°
2026-05-08 03:16 -16.06960 142.04917 40930 ft 514 kts 159°
2026-05-08 03:17 -16.13368 142.08212 40932 ft 514 kts 160°
2026-05-08 03:17 -16.19808 142.11506 40931 ft 514 kts 160°
2026-05-08 03:18 -16.26227 142.14796 40932 ft 515 kts 160°
2026-05-08 03:18 -16.32646 142.18093 40931 ft 515 kts 160°
2026-05-08 03:19 -16.39096 142.21411 40931 ft 516 kts 160°
2026-05-08 03:19 -16.45531 142.24723 40930 ft 517 kts 160°
2026-05-08 03:20 -16.51968 142.28038 40930 ft 517 kts 160°
2026-05-08 03:20 -16.58410 142.31359 40931 ft 517 kts 160°
2026-05-08 03:21 -16.64880 142.34696 40931 ft 518 kts 160°
2026-05-08 03:21 -16.71326 142.38025 40934 ft 518 kts 160°
2026-05-08 03:22 -16.77786 142.41362 40934 ft 519 kts 160°
2026-05-08 03:22 -16.84276 142.44718 40932 ft 519 kts 160°
2026-05-08 03:23 -16.90739 142.48063 40933 ft 519 kts 160°
2026-05-08 03:23 -16.97217 142.51417 40936 ft 520 kts 160°
2026-05-08 03:24 -17.03701 142.54779 40934 ft 520 kts 160°
2026-05-08 03:24 -17.10206 142.58152 40939 ft 521 kts 160°
2026-05-08 03:25 -17.16702 142.61514 40943 ft 521 kts 160°
2026-05-08 03:25 -17.23195 142.64878 40941 ft 522 kts 160°
2026-05-08 03:26 -17.29716 142.68297 40944 ft 522 kts 160°
2026-05-08 03:26 -17.36202 142.71697 40947 ft 523 kts 160°
2026-05-08 03:27 -17.42707 142.75092 40948 ft 523 kts 160°
2026-05-08 03:27 -17.49209 142.78484 40953 ft 523 kts 160°
2026-05-08 03:28 -17.55751 142.81900 40953 ft 524 kts 160°
2026-05-08 03:28 -17.62265 142.85304 40955 ft 525 kts 160°
2026-05-08 03:29 -17.68790 142.88726 40962 ft 525 kts 160°
2026-05-08 03:29 -17.75339 142.92163 40953 ft 525 kts 160°
2026-05-08 03:30 -17.85164 142.97269 40967 ft 527 kts 160°
2026-05-08 03:31 -17.98303 143.04136 40972 ft 527 kts 160°
2026-05-08 03:32 -18.08136 143.09295 40974 ft 528 kts 160°
2026-05-08 03:32 -18.14698 143.12736 40976 ft 527 kts 160°
2026-05-08 03:33 -18.21278 143.16185 40990 ft 528 kts 161°
2026-05-08 03:33 -18.27838 143.19632 40993 ft 528 kts 160°
2026-05-08 03:34 -18.34397 143.23087 41003 ft 528 kts 161°
2026-05-08 03:34 -18.40963 143.26546 41002 ft 529 kts 161°
2026-05-08 03:35 -18.47547 143.30022 41010 ft 528 kts 160°
2026-05-08 03:35 -18.54104 143.33484 41016 ft 529 kts 161°
2026-05-08 03:36 -18.60673 143.36959 41022 ft 528 kts 161°
2026-05-08 03:36 -18.67250 143.40438 41028 ft 528 kts 161°
2026-05-08 03:37 -18.73821 143.43916 41028 ft 529 kts 161°
2026-05-08 03:37 -18.80388 143.47395 41037 ft 530 kts 161°
2026-05-08 03:38 -18.86958 143.50881 41044 ft 530 kts 161°
2026-05-08 03:38 -18.93564 143.54388 41044 ft 530 kts 161°
2026-05-08 03:39 -19.00152 143.57889 41054 ft 530 kts 161°
2026-05-08 03:39 -19.06734 143.61389 41053 ft 531 kts 161°
2026-05-08 03:40 -19.13357 143.64912 41061 ft 530 kts 161°
2026-05-08 03:40 -19.19947 143.68438 41065 ft 532 kts 160°
2026-05-08 03:41 -19.26534 143.71973 41066 ft 531 kts 160°
2026-05-08 03:41 -19.33134 143.75500 41069 ft 532 kts 160°
2026-05-08 03:42 -19.39530 143.78920 41075 ft 532 kts 160°
2026-05-08 03:42 -19.46138 143.82455 41080 ft 532 kts 160°
2026-05-08 03:43 -19.52693 143.85971 41075 ft 518 kts 160°
2026-05-08 03:43 -19.55857 143.87675 41085 ft 504 kts 161°
2026-05-08 03:43 -19.58976 143.89353 41095 ft 498 kts 161°
2026-05-08 03:44 -19.65154 143.92660 41087 ft 498 kts 161°
2026-05-08 03:44 -19.71329 143.95967 41084 ft 498 kts 161°
2026-05-08 03:45 -19.77495 143.99277 41082 ft 497 kts 161°
2026-05-08 03:45 -19.83687 144.02606 41081 ft 498 kts 161°
2026-05-08 03:46 -19.89862 144.05930 41081 ft 498 kts 161°
2026-05-08 03:46 -19.96023 144.09250 41083 ft 497 kts 161°
2026-05-08 03:47 -20.02208 144.12582 41083 ft 499 kts 161°
2026-05-08 03:47 -20.08373 144.15911 41080 ft 497 kts 160°
2026-05-08 03:48 -20.14548 144.19238 41077 ft 499 kts 161°
2026-05-08 03:48 -20.20714 144.22564 41079 ft 498 kts 161°
2026-05-08 03:49 -20.26912 144.25918 41074 ft 498 kts 161°
2026-05-08 03:49 -20.33071 144.29257 41073 ft 498 kts 161°
2026-05-08 03:50 -20.39238 144.32605 41062 ft 498 kts 160°
2026-05-08 03:50 -20.45426 144.35974 41064 ft 499 kts 161°
2026-05-08 03:51 -20.51598 144.39341 41060 ft 499 kts 161°
2026-05-08 03:51 -20.57764 144.42675 41057 ft 497 kts 161°
2026-05-08 03:52 -20.63971 144.45887 41056 ft 497 kts 162°
2026-05-08 03:52 -20.70198 144.49121 41052 ft 496 kts 162°
2026-05-08 03:53 -20.76399 144.52364 41055 ft 497 kts 161°
2026-05-08 03:53 -20.82597 144.55618 41056 ft 497 kts 162°
2026-05-08 03:54 -20.88814 144.58887 41051 ft 497 kts 162°
2026-05-08 03:54 -20.95017 144.62149 41052 ft 498 kts 162°
2026-05-08 03:55 -21.01205 144.65412 41046 ft 497 kts 161°
2026-05-08 03:55 -21.07395 144.68705 41044 ft 497 kts 161°
2026-05-08 03:56 -21.13624 144.72007 41046 ft 498 kts 161°
2026-05-08 03:56 -21.19817 144.75276 41049 ft 497 kts 161°
2026-05-08 03:57 -21.26021 144.78551 41043 ft 497 kts 161°
2026-05-08 03:57 -21.32241 144.81843 41044 ft 497 kts 161°
2026-05-08 03:58 -21.38439 144.85128 41042 ft 497 kts 161°
2026-05-08 03:58 -21.44629 144.88413 41044 ft 498 kts 161°
2026-05-08 03:59 -21.50821 144.91702 41040 ft 497 kts 161°
2026-05-08 03:59 -21.57042 144.95011 41041 ft 498 kts 161°
2026-05-08 04:00 -21.63242 144.98318 41043 ft 499 kts 161°
2026-05-08 04:00 -21.69431 145.01629 41042 ft 497 kts 161°
2026-05-08 04:01 -21.75641 145.04927 41044 ft 497 kts 161°
2026-05-08 04:01 -21.81838 145.08201 41043 ft 497 kts 161°
2026-05-08 04:02 -21.88027 145.11490 41041 ft 497 kts 161°
2026-05-08 04:02 -21.94215 145.14792 41044 ft 498 kts 161°
2026-05-08 04:03 -22.00422 145.18111 41041 ft 497 kts 161°
2026-05-08 04:03 -22.09700 145.23078 41042 ft 498 kts 161°
2026-05-08 04:04 -22.15888 145.26388 41041 ft 497 kts 161°
2026-05-08 04:04 -22.22078 145.29700 41042 ft 496 kts 161°
2026-05-08 04:05 -22.28259 145.33015 41047 ft 496 kts 161°
2026-05-08 04:05 -22.34435 145.36336 41046 ft 496 kts 161°
2026-05-08 04:06 -22.40633 145.39673 41049 ft 496 kts 161°
2026-05-08 04:06 -22.46794 145.42991 41051 ft 496 kts 161°
2026-05-08 04:07 -22.52961 145.46318 41052 ft 495 kts 161°
2026-05-08 04:07 -22.59118 145.49642 41056 ft 496 kts 161°
2026-05-08 04:08 -22.65302 145.52984 41051 ft 496 kts 161°
2026-05-08 04:08 -22.71464 145.56315 41051 ft 495 kts 161°
2026-05-08 04:09 -22.77617 145.59648 41056 ft 495 kts 161°
2026-05-08 04:09 -22.83791 145.62994 41059 ft 496 kts 161°
2026-05-08 04:10 -22.89951 145.66344 41057 ft 496 kts 161°
2026-05-08 04:10 -22.96099 145.69716 41059 ft 496 kts 160°
2026-05-08 04:11 -23.02250 145.73076 41068 ft 496 kts 160°
2026-05-08 04:11 -23.08424 145.76442 41065 ft 495 kts 161°
2026-05-08 04:12 -23.14581 145.79789 41065 ft 495 kts 161°
2026-05-08 04:12 -23.20733 145.83133 41064 ft 495 kts 161°
2026-05-08 04:13 -23.26902 145.86498 41064 ft 495 kts 161°
2026-05-08 04:13 -23.33038 145.89850 41062 ft 495 kts 160°
2026-05-08 04:14 -23.39180 145.93210 41069 ft 495 kts 161°
2026-05-08 04:14 -23.45309 145.96568 41068 ft 494 kts 161°
2026-05-08 04:15 -23.51462 145.99942 41064 ft 494 kts 161°
2026-05-08 04:15 -23.57595 146.03306 41066 ft 495 kts 161°
2026-05-08 04:16 -23.63726 146.06676 41062 ft 494 kts 161°
2026-05-08 04:16 -23.69875 146.10059 41065 ft 494 kts 160°
2026-05-08 04:17 -23.76007 146.13433 41067 ft 495 kts 160°
2026-05-08 04:17 -23.82137 146.16815 41067 ft 495 kts 161°
2026-05-08 04:18 -23.88271 146.20201 41064 ft 495 kts 160°
2026-05-08 04:18 -23.94423 146.23601 41056 ft 494 kts 161°
2026-05-08 04:19 -24.00546 146.26989 41061 ft 494 kts 161°
2026-05-08 04:19 -24.06656 146.30373 41059 ft 494 kts 161°
2026-05-08 04:20 -24.12796 146.33775 41053 ft 493 kts 161°
2026-05-08 04:20 -24.18915 146.37163 41057 ft 493 kts 160°
2026-05-08 04:21 -24.25032 146.40564 41059 ft 494 kts 161°
2026-05-08 04:21 -24.31139 146.43974 41054 ft 494 kts 160°
2026-05-08 04:22 -24.37266 146.47398 41056 ft 494 kts 160°
2026-05-08 04:22 -24.43386 146.50795 41063 ft 494 kts 161°
2026-05-08 04:23 -24.49512 146.54173 41061 ft 494 kts 161°
2026-05-08 04:23 -24.55650 146.57587 41057 ft 493 kts 160°
2026-05-08 04:24 -24.61766 146.61000 41058 ft 494 kts 160°
2026-05-08 04:24 -24.67879 146.64419 41061 ft 494 kts 160°
2026-05-08 04:25 -24.73992 146.67870 41058 ft 495 kts 160°
2026-05-08 04:25 -24.80126 146.71341 41055 ft 494 kts 160°
2026-05-08 04:26 -24.86242 146.74784 41056 ft 495 kts 160°
2026-05-08 04:26 -24.92360 146.78226 41057 ft 495 kts 160°
2026-05-08 04:27 -24.98494 146.81679 41057 ft 494 kts 160°
2026-05-08 04:27 -25.04606 146.85119 41052 ft 495 kts 160°
2026-05-08 04:28 -25.10721 146.88571 41048 ft 494 kts 160°
2026-05-08 04:28 -25.16832 146.92010 41048 ft 494 kts 160°
2026-05-08 04:29 -25.22959 146.95468 41045 ft 493 kts 160°
2026-05-08 04:29 -25.29057 146.98916 41042 ft 494 kts 160°
2026-05-08 04:30 -25.35165 147.02375 41040 ft 494 kts 160°
2026-05-08 04:30 -25.41288 147.05850 41040 ft 495 kts 160°
2026-05-08 04:31 -25.47390 147.09320 41040 ft 494 kts 160°
2026-05-08 04:31 -25.53490 147.12788 41039 ft 494 kts 160°
2026-05-08 04:32 -25.59576 147.16255 41041 ft 494 kts 160°
2026-05-08 04:32 -25.65699 147.19747 41041 ft 494 kts 160°
2026-05-08 04:33 -25.71790 147.23231 41041 ft 493 kts 160°
2026-05-08 04:33 -25.77873 147.26710 41042 ft 494 kts 160°
2026-05-08 04:34 -25.83976 147.30215 41040 ft 493 kts 160°
2026-05-08 04:34 -25.90056 147.33710 41041 ft 493 kts 160°
2026-05-08 04:35 -25.96134 147.37178 41039 ft 493 kts 160°
2026-05-08 04:35 -26.02224 147.40652 41041 ft 493 kts 160°
2026-05-08 04:36 -26.08322 147.44152 41041 ft 492 kts 160°
2026-05-08 04:36 -26.14404 147.47647 41040 ft 493 kts 160°
2026-05-08 04:37 -26.20477 147.51141 41038 ft 492 kts 160°
2026-05-08 04:37 -26.26569 147.54656 41036 ft 492 kts 160°
2026-05-08 04:38 -26.32625 147.58161 41036 ft 492 kts 160°
2026-05-08 04:38 -26.38685 147.61671 41037 ft 492 kts 160°
2026-05-08 04:39 -26.44741 147.65183 41031 ft 491 kts 159°
2026-05-08 04:39 -26.50827 147.68744 41036 ft 493 kts 159°
2026-05-08 04:40 -26.56876 147.72283 41034 ft 492 kts 159°
2026-05-08 04:40 -26.62927 147.75813 41029 ft 492 kts 159°
2026-05-08 04:41 -26.69004 147.79354 41031 ft 492 kts 159°
2026-05-08 04:41 -26.75055 147.82884 41033 ft 491 kts 159°
2026-05-08 04:42 -26.81109 147.86422 41027 ft 491 kts 159°
2026-05-08 04:42 -26.87146 147.89955 41027 ft 491 kts 159°
2026-05-08 04:43 -26.93206 147.93505 41029 ft 490 kts 159°
2026-05-08 04:43 -26.99236 147.97042 41029 ft 491 kts 159°
2026-05-08 04:44 -27.05264 148.00582 41028 ft 490 kts 159°
2026-05-08 04:44 -27.11320 148.04143 41025 ft 491 kts 159°
2026-05-08 04:45 -27.17354 148.07686 41027 ft 491 kts 159°
2026-05-08 04:45 -27.23392 148.11251 41025 ft 491 kts 159°
2026-05-08 04:46 -27.29420 148.14821 41024 ft 491 kts 159°
2026-05-08 04:46 -27.35476 148.18398 41020 ft 491 kts 159°
2026-05-08 04:47 -27.41498 148.21927 41017 ft 490 kts 159°
2026-05-08 04:47 -27.47557 148.25499 41020 ft 491 kts 159°
2026-05-08 04:48 -27.53608 148.29085 41015 ft 491 kts 159°
2026-05-08 04:48 -27.59636 148.32664 41012 ft 491 kts 159°
2026-05-08 04:49 -27.65669 148.36253 41013 ft 491 kts 159°
2026-05-08 04:49 -27.71687 148.39840 41006 ft 490 kts 159°
2026-05-08 04:50 -27.77727 148.43442 41006 ft 491 kts 159°
2026-05-08 04:50 -27.83742 148.47039 41009 ft 491 kts 159°
2026-05-08 04:51 -27.89758 148.50645 41009 ft 490 kts 159°
2026-05-08 04:51 -27.95789 148.54270 41009 ft 491 kts 159°
2026-05-08 04:52 -28.01797 148.57903 41007 ft 492 kts 157°
2026-05-08 04:52 -28.07563 148.62134 41003 ft 498 kts 148°
2026-05-08 04:53 -28.12990 148.67044 41000 ft 501 kts 145°
2026-05-08 04:53 -28.18378 148.72069 41003 ft 501 kts 146°
2026-05-08 04:54 -28.23759 148.77056 41000 ft 500 kts 146°
2026-05-08 04:54 -28.29138 148.82023 41001 ft 500 kts 146°
2026-05-08 04:55 -28.34542 148.87016 40998 ft 501 kts 146°
2026-05-08 04:55 -28.39925 148.91995 40999 ft 501 kts 146°
2026-05-08 04:56 -28.45300 148.96972 40995 ft 501 kts 146°
2026-05-08 04:56 -28.50679 149.01963 40991 ft 500 kts 146°
2026-05-08 04:57 -28.56082 149.06979 40987 ft 504 kts 146°
2026-05-08 04:57 -28.61527 149.12039 40990 ft 510 kts 146°
2026-05-08 04:58 -28.67040 149.17174 40988 ft 517 kts 146°
2026-05-08 04:58 -28.72644 149.22404 40987 ft 523 kts 146°
2026-05-08 04:59 -28.78295 149.27690 40985 ft 530 kts 145°
2026-05-08 04:59 -28.83990 149.33034 40983 ft 533 kts 145°
2026-05-08 05:00 -28.89691 149.38396 40985 ft 532 kts 145°
2026-05-08 05:00 -28.95420 149.43747 40984 ft 532 kts 146°
2026-05-08 05:01 -29.01131 149.49072 40981 ft 532 kts 146°
2026-05-08 05:01 -29.06835 149.54424 40981 ft 532 kts 145°
2026-05-08 05:02 -29.12557 149.59810 40981 ft 531 kts 145°
2026-05-08 05:02 -29.18259 149.65165 40978 ft 531 kts 145°
2026-05-08 05:03 -29.23944 149.70559 40975 ft 532 kts 144°
2026-05-08 05:03 -29.29616 149.75950 40979 ft 532 kts 145°
2026-05-08 05:04 -29.35310 149.81360 40975 ft 531 kts 145°
2026-05-08 05:04 -29.40988 149.86756 40681 ft 531 kts 145°
2026-05-08 05:05 -29.43828 149.89457 40441 ft 531 kts 144°
2026-05-08 05:05 -29.46665 149.92162 40205 ft 532 kts 144°
2026-05-08 05:05 -29.49499 149.94871 39972 ft 532 kts 144°
2026-05-08 05:05 -29.52357 149.97607 39734 ft 533 kts 144°
2026-05-08 05:06 -29.55201 150.00324 39503 ft 534 kts 145°
2026-05-08 05:06 -29.58053 150.03036 39271 ft 533 kts 146°
2026-05-08 05:06 -29.61011 150.05558 39039 ft 529 kts 151°
2026-05-08 05:06 -29.64110 150.07795 38809 ft 526 kts 156°
2026-05-08 05:07 -29.67338 150.09732 38580 ft 523 kts 161°
2026-05-08 05:07 -29.70665 150.11364 38361 ft 519 kts 166°
2026-05-08 05:07 -29.74090 150.12691 38158 ft 515 kts 171°
2026-05-08 05:07 -29.77557 150.13768 37954 ft 521 kts 173°
2026-05-08 05:08 -29.84607 150.15817 37977 ft 526 kts 173°
2026-05-08 05:08 -29.91691 150.17902 37995 ft 527 kts 173°
2026-05-08 05:09 -29.98802 150.20028 38005 ft 527 kts 172°
2026-05-08 05:09 -30.05878 150.22157 38013 ft 527 kts 173°
2026-05-08 05:10 -30.16502 150.25356 38021 ft 527 kts 173°
2026-05-08 05:11 -30.23602 150.27499 38028 ft 527 kts 173°
2026-05-08 05:11 -30.30682 150.29641 38028 ft 527 kts 173°
2026-05-08 05:12 -30.37755 150.31785 38020 ft 527 kts 172°
2026-05-08 05:12 -30.44836 150.33936 38012 ft 527 kts 172°
2026-05-08 05:13 -30.51943 150.36099 38007 ft 526 kts 173°
2026-05-08 05:13 -30.59027 150.38261 38002 ft 527 kts 172°
2026-05-08 05:14 -30.66107 150.40426 38003 ft 527 kts 172°
2026-05-08 05:14 -30.73199 150.42605 38000 ft 527 kts 172°
2026-05-08 05:15 -30.80267 150.44786 37995 ft 527 kts 172°
2026-05-08 05:15 -30.87341 150.46947 37996 ft 527 kts 173°
2026-05-08 05:16 -30.94423 150.49077 37994 ft 527 kts 173°
2026-05-08 05:16 -31.01539 150.51244 37993 ft 527 kts 172°
2026-05-08 05:17 -31.08610 150.53416 37992 ft 527 kts 172°
2026-05-08 05:17 -31.15693 150.55596 37994 ft 527 kts 172°
2026-05-08 05:18 -31.22791 150.57784 37991 ft 526 kts 173°
2026-05-08 05:18 -31.29857 150.59968 37994 ft 526 kts 173°
2026-05-08 05:19 -31.36920 150.62154 37995 ft 527 kts 172°
2026-05-08 05:19 -31.43997 150.64350 37995 ft 527 kts 172°
2026-05-08 05:20 -31.51099 150.66574 37731 ft 529 kts 172°
2026-05-08 05:20 -31.54636 150.67693 37256 ft 526 kts 172°
2026-05-08 05:20 -31.58151 150.68803 36630 ft 524 kts 172°
2026-05-08 05:20 -31.61659 150.69903 35877 ft 524 kts 172°
2026-05-08 05:21 -31.65165 150.70998 35125 ft 524 kts 171°
2026-05-08 05:21 -31.68676 150.72095 34334 ft 524 kts 171°
2026-05-08 05:21 -31.72220 150.73203 33515 ft 526 kts 171°
2026-05-08 05:21 -31.75745 150.74305 32685 ft 527 kts 171°
2026-05-08 05:22 -31.79286 150.75414 31880 ft 530 kts 171°
2026-05-08 05:22 -31.82833 150.76525 31141 ft 529 kts 170°
2026-05-08 05:22 -31.86356 150.77636 30747 ft 521 kts 170°
2026-05-08 05:22 -31.89829 150.78737 30333 ft 514 kts 170°
2026-05-08 05:23 -31.93252 150.79823 29901 ft 509 kts 170°
2026-05-08 05:23 -31.96687 150.80908 29395 ft 505 kts 170°
2026-05-08 05:23 -32.00053 150.81968 28956 ft 500 kts 170°
2026-05-08 05:23 -32.03393 150.82910 28537 ft 491 kts 174°
2026-05-08 05:24 -32.06728 150.83617 28100 ft 484 kts 176°
2026-05-08 05:24 -32.10037 150.84204 27639 ft 480 kts 177°
2026-05-08 05:24 -32.13320 150.84762 27173 ft 476 kts 177°
2026-05-08 05:24 -32.16581 150.85318 26715 ft 472 kts 176°
2026-05-08 05:25 -32.19835 150.85878 26240 ft 469 kts 176°
2026-05-08 05:25 -32.23043 150.86436 25779 ft 465 kts 176°
2026-05-08 05:25 -32.26229 150.86995 25321 ft 462 kts 176°
2026-05-08 05:25 -32.29387 150.87552 24862 ft 458 kts 175°
2026-05-08 05:26 -32.32521 150.88106 24384 ft 455 kts 175°
2026-05-08 05:26 -32.35637 150.88658 23941 ft 452 kts 175°
2026-05-08 05:26 -32.38727 150.89207 23488 ft 449 kts 175°
2026-05-08 05:26 -32.41822 150.89760 23023 ft 446 kts 175°
2026-05-08 05:27 -32.44874 150.90303 22565 ft 443 kts 174°
2026-05-08 05:27 -32.47910 150.90842 22105 ft 441 kts 174°
2026-05-08 05:27 -32.50922 150.91374 21672 ft 437 kts 175°
2026-05-08 05:27 -32.53914 150.91894 21249 ft 434 kts 175°
2026-05-08 05:28 -32.56879 150.92412 20840 ft 430 kts 174°
2026-05-08 05:28 -32.59816 150.92929 20450 ft 426 kts 174°
2026-05-08 05:28 -32.62750 150.93449 20044 ft 422 kts 174°
2026-05-08 05:28 -32.65636 150.93963 19636 ft 419 kts 174°
2026-05-08 05:29 -32.68506 150.94477 19229 ft 416 kts 174°
2026-05-08 05:29 -32.71355 150.94988 18826 ft 413 kts 174°
2026-05-08 05:29 -32.74185 150.95495 18415 ft 410 kts 174°
2026-05-08 05:29 -32.76988 150.95994 18019 ft 407 kts 174°
2026-05-08 05:30 -32.79767 150.96487 17625 ft 403 kts 174°
2026-05-08 05:30 -32.82558 150.96973 17226 ft 401 kts 174°
2026-05-08 05:30 -32.85288 150.97449 16835 ft 398 kts 174°
2026-05-08 05:30 -32.88013 150.97930 16437 ft 395 kts 174°
2026-05-08 05:31 -32.90713 150.98408 16048 ft 392 kts 174°
2026-05-08 05:31 -32.93402 150.98888 15650 ft 390 kts 174°
2026-05-08 05:31 -32.96071 150.99364 15260 ft 387 kts 173°
2026-05-08 05:31 -32.98720 150.99837 14875 ft 384 kts 173°
2026-05-08 05:32 -33.01382 151.00314 14481 ft 381 kts 173°
2026-05-08 05:32 -33.04008 151.00786 14088 ft 379 kts 173°
2026-05-08 05:32 -33.06594 151.01252 13704 ft 375 kts 173°
2026-05-08 05:32 -33.09165 151.01715 13315 ft 373 kts 173°
2026-05-08 05:33 -33.11718 151.02175 12926 ft 370 kts 173°
2026-05-08 05:33 -33.14251 151.02633 12523 ft 367 kts 173°
2026-05-08 05:33 -33.16785 151.03091 12112 ft 365 kts 173°
2026-05-08 05:33 -33.19287 151.03542 11697 ft 363 kts 173°
2026-05-08 05:34 -33.21780 151.03991 11287 ft 361 kts 173°
2026-05-08 05:34 -33.24256 151.04437 10869 ft 359 kts 173°
2026-05-08 05:34 -33.26714 151.04900 10532 ft 354 kts 172°
2026-05-08 05:34 -33.29100 151.05362 10404 ft 342 kts 172°
2026-05-08 05:35 -33.31405 151.05809 10288 ft 330 kts 172°
2026-05-08 05:35 -33.33642 151.06243 10189 ft 318 kts 172°
2026-05-08 05:35 -33.35784 151.06657 10106 ft 306 kts 172°
2026-05-08 05:35 -33.37845 151.07052 10012 ft 296 kts 172°
2026-05-08 05:36 -33.39855 151.07433 9859 ft 290 kts 172°
2026-05-08 05:36 -33.41852 151.07812 9531 ft 291 kts 172°
2026-05-08 05:36 -33.43846 151.08193 9247 ft 290 kts 172°
2026-05-08 05:36 -33.45832 151.08573 8980 ft 289 kts 172°
2026-05-08 05:37 -33.47828 151.08959 8713 ft 287 kts 172°
2026-05-08 05:37 -33.49794 151.09339 8455 ft 286 kts 172°
2026-05-08 05:37 -33.51749 151.09717 8198 ft 284 kts 172°
2026-05-08 05:37 -33.53690 151.10094 7944 ft 282 kts 172°
2026-05-08 05:38 -33.55615 151.10466 7695 ft 280 kts 172°
2026-05-08 05:38 -33.57529 151.10837 7445 ft 278 kts 172°
2026-05-08 05:38 -33.59433 151.11204 7192 ft 277 kts 171°
2026-05-08 05:38 -33.61348 151.11574 6940 ft 275 kts 171°
2026-05-08 05:39 -33.63227 151.12118 6676 ft 283 kts 155°
2026-05-08 05:39 -33.64821 151.13479 6449 ft 283 kts 137°
2026-05-08 05:39 -33.66215 151.15135 6204 ft 282 kts 134°
2026-05-08 05:39 -33.67564 151.16827 5963 ft 280 kts 133°
2026-05-08 05:40 -33.68896 151.18516 5721 ft 278 kts 133°
2026-05-08 05:40 -33.70214 151.20186 5461 ft 276 kts 133°
2026-05-08 05:40 -33.71552 151.21872 4973 ft 276 kts 133°
2026-05-08 05:40 -33.72860 151.23518 4479 ft 270 kts 133°
2026-05-08 05:41 -33.74134 151.25119 3914 ft 265 kts 133°
2026-05-08 05:41 -33.75394 151.26694 3669 ft 260 kts 133°
2026-05-08 05:41 -33.76642 151.28247 3477 ft 256 kts 133°
2026-05-08 05:41 -33.77865 151.29766 3283 ft 251 kts 133°
2026-05-08 05:42 -33.79068 151.31255 3088 ft 247 kts 133°
2026-05-08 05:42 -33.80257 151.32727 2928 ft 240 kts 133°
2026-05-08 05:42 -33.81390 151.34131 2898 ft 229 kts 133°
2026-05-08 05:42 -33.82471 151.35471 2897 ft 221 kts 133°
2026-05-08 05:43 -33.83542 151.36796 2897 ft 222 kts 133°
2026-05-08 05:43 -33.84613 151.38119 2896 ft 221 kts 133°
2026-05-08 05:43 -33.85687 151.39443 2895 ft 221 kts 133°
2026-05-08 05:43 -33.86780 151.40742 2888 ft 222 kts 141°
2026-05-08 05:44 -33.88219 151.41352 2873 ft 225 kts 182°
2026-05-08 05:44 -33.89655 151.40621 2874 ft 234 kts 223°
2026-05-08 05:44 -33.90360 151.38911 2870 ft 229 kts 263°
2026-05-08 05:44 -33.90380 151.37043 2837 ft 220 kts 272°
2026-05-08 05:45 -33.90291 151.35239 2668 ft 215 kts 270°
2026-05-08 05:45 -33.90383 151.33461 2397 ft 212 kts 259°
2026-05-08 05:45 -33.90689 151.31749 2128 ft 208 kts 252°
2026-05-08 05:45 -33.91099 151.30092 1863 ft 205 kts 250°
2026-05-08 05:46 -33.91507 151.28480 1599 ft 198 kts 250°
2026-05-08 05:46 -33.91878 151.26932 1347 ft 188 kts 250°
2026-05-08 05:46 -33.92223 151.25461 1109 ft 179 kts 250°
2026-05-08 05:46 -33.92554 151.24053 882 ft 171 kts 250°
2026-05-08 05:47 -33.92872 151.22715 669 ft 163 kts 250°
2026-05-08 05:47 -33.93175 151.21429 468 ft 159 kts 250°
2026-05-08 05:47 -33.93473 151.20143 265 ft 159 kts 250°
2026-05-08 05:47 -33.93776 151.18870 52 ft 158 kts 250°
2026-05-08 05:48 -33.94057 151.17718 16 ft 120 kts 254°
2026-05-08 05:48 -33.94210 151.17055 26 ft 33 kts 254°
2026-05-08 05:48 -33.94241 151.16898 26 ft 13 kts 282°
2026-05-08 05:48 -33.94188 151.16852 26 ft 9 kts 346°
2026-05-08 05:49 -33.94146 151.16841 26 ft 6 kts 348°
2026-05-08 05:49 -33.94107 151.16830 27 ft 5 kts 346°
2026-05-08 05:49 -33.94073 151.16834 27 ft 5 kts 23°
2026-05-08 05:49 -33.94055 151.16864 28 ft 5 kts 76°
2026-05-08 05:50 -33.94046 151.16910 28 ft 7 kts 76°
2026-05-08 05:50 -33.94033 151.16967 28 ft 5 kts 73°
2026-05-08 05:50 -33.94021 151.17016 28 ft 7 kts 74°
2026-05-08 05:50 -33.94007 151.17075 27 ft 8 kts 74°
2026-05-08 05:51 -33.93987 151.17158 26 ft 12 kts 75°
2026-05-08 05:51 -33.93952 151.17215 23 ft 7 kts
2026-05-08 05:51 -33.93891 151.17204 22 ft 10 kts 348°
2026-05-08 05:51 -33.93810 151.17184 22 ft 13 kts 348°
2026-05-08 05:52 -33.93720 151.17160 23 ft 14 kts 347°
2026-05-08 05:52 -33.93623 151.17134 24 ft 15 kts 348°
2026-05-08 05:52 -33.93526 151.17106 26 ft 11 kts 334°
2026-05-08 05:52 -33.93501 151.17045 28 ft 9 kts 262°
2026-05-08 05:53 -33.93515 151.16973 29 ft 9 kts 258°
2026-05-08 05:53 -33.93528 151.16900 31 ft 6 kts 258°
2026-05-08 05:53 -33.93543 151.16856 32 ft 6 kts 238°
2026-05-08 05:53 -33.93561 151.16823 32 ft 2 kts 237°
2026-05-08 05:54 -33.93563 151.16818 32 ft 0 kts 238°